FW6030 Weather Reports


time (UTC)temp
C
wind
direction
speed
KPH
gust
KPH
rain 1hr
cm
rain 24hr
cm
rain mn
cm
humidity
%
barometer
mb
20260905171534 32 360 4.8 19.3 0.00 0.00 0.00 59 1015.9
20260905171433 32 360 6.4 19.3 0.00 0.00 0.00 59 1016.0
20260905171334 32 360 9.7 20.9 0.00 0.00 0.00 58 1015.9
20260905171234 32 360 9.7 20.9 0.00 0.00 0.00 61 1015.9
20260905171155 32 360 8.0 20.9 0.00 0.00 0.00 60 1015.9
20260905171034 32 360 8.0 20.9 0.00 0.00 0.00 60 1015.8
20260905170935 32 360 8.0 20.9 0.00 0.00 0.00 61 1015.9
20260905170855 32 360 9.7 20.9 0.00 0.00 0.00 61 1015.9
20260905170716 32 360 12.9 20.9 0.00 0.00 0.00 61 1015.9
20260905170616 32 360 12.9 20.9 0.00 0.00 0.00 60 1016.0
20260905170517 32 360 12.9 20.9 0.00 0.00 0.00 60 1015.9
20260905170418 32 155 12.9 20.9 0.00 0.00 0.00 60 1015.9
20260905170317 32 360 12.9 20.9 0.00 0.00 0.00 60 1015.9
20260905170218 32 360 12.9 19.3 0.00 0.00 0.00 61 1016.0
20260905170123 32 360 12.9 19.3 0.00 0.00 0.00 61 1015.9
20260905170023 32 360 11.3 19.3 0.00 0.00 0.00 60 1016.0
20260905165923 32 360 9.7 19.3 0.00 0.00 0.00 62 1016.1
20260905165825 32 360 9.7 17.7 0.00 0.00 0.00 61 1016.0
20260905165725 32 360 9.7 17.7 0.00 0.00 0.00 60 1016.0
20260905165646 32 360 9.7 17.7 0.00 0.00 0.00 59 1016.0
20260905165526 32 360 6.4 17.7 0.00 0.00 0.00 58 1016.0
20260905165431 33 360 8.0 17.7 0.00 0.00 0.00 58 1016.1
20260905165332 33 360 9.7 17.7 0.00 0.00 0.00 58 1016.0
20260905165231 33 360 8.0 17.7 0.00 0.00 0.00 57 1016.1
20260905165132 34 360 4.8 17.7 0.00 0.00 0.00 56 1016.1
20260905165032 34 360 1.6 12.9 0.00 0.00 0.00 56 1016.0
20260905164933 34 360 1.6 12.9 0.00 0.00 0.00 57 1016.0
20260905164853 33 360 3.2 12.9 0.00 0.00 0.00 59 1016.1
20260905164736 33 360 4.8 12.9 0.00 0.00 0.00 60 1016.0
20260905164657 32 360 4.8 12.9 0.00 0.00 0.00 60 1016.0
20260905164555 32 360 4.8 17.7 0.00 0.00 0.00 60 1016.1
20260905164434 32 360 6.4 17.7 0.00 0.00 0.00 61 1016.1
20260905164335 32 360 6.4 17.7 0.00 0.00 0.00 60 1016.1
20260905164235 32 360 6.4 17.7 0.00 0.00 0.00 60 1016.1
20260905164135 32 360 4.8 17.7 0.00 0.00 0.00 60 1016.0
20260905164020 32 360 4.8 19.3 0.00 0.00 0.00 62 1016.0
20260905163920 32 360 6.4 19.3 0.00 0.00 0.00 61 1016.0
20260905163820 32 360 8.0 19.3 0.00 0.00 0.00 61 1016.1
20260905163721 32 360 8.0 19.3 0.00 0.00 0.00 61 1016.1
20260905163622 31 360 8.0 19.3 0.00 0.00 0.00 60 1016.1
20260905163542 31 360 6.4 19.3 0.00 0.00 0.00 60 1016.1
20260905163442 31 360 6.4 19.3 0.00 0.00 0.00 59 1016.2
20260905163321 31 360 11.3 19.3 0.00 0.00 0.00 59 1016.2
20260905163226 32 360 11.3 19.3 0.00 0.00 0.00 61 1016.2
20260905163127 32 360 9.7 16.1 0.00 0.00 0.00 62 1016.2
20260905163027 32 360 8.0 16.1 0.00 0.00 0.00 62 1016.1
20260905162929 32 360 4.8 16.1 0.00 0.00 0.00 63 1016.1
20260905162832 31 360 4.8 16.1 0.00 0.00 0.00 63 1016.1
20260905162732 31 360 4.8 16.1 0.00 0.00 0.00 63 1016.1
20260905162617 31 360 6.4 19.3 0.00 0.00 0.00 64 1016.1
20260905162537 31 360 8.0 19.3 0.00 0.00 0.00 63 1016.2
20260905162416 31 360 8.0 19.3 0.00 0.00 0.00 62 1016.1
20260905162317 31 360 9.7 22.5 0.00 0.00 0.00 62 1016.1
20260905162218 31 360 6.4 22.5 0.00 0.00 0.00 63 1016.2
20260905162117 31 360 6.4 22.5 0.00 0.00 0.00 63 1016.1
20260905162017 31 360 8.0 22.5 0.00 0.00 0.00 64 1016.2
20260905161917 31 360 11.3 22.5 0.00 0.00 0.00 64 1016.1
20260905161822 31 360 14.5 27.4 0.00 0.00 0.00 64 1016.2
20260905161742 31 360 14.5 27.4 0.00 0.00 0.00 65 1016.2
20260905161622 31 360 14.5 27.4 0.00 0.00 0.00 65 1016.1
20260905161521 31 151 9.7 27.4 0.00 0.00 0.00 66 1016.2
20260905161443 31 360 8.0 27.4 0.00 0.00 0.00 66 1016.2
20260905161316 31 360 6.4 27.4 0.00 0.00 0.00 66 1016.1
20260905161216 31 360 11.3 27.4 0.00 0.00 0.00 65 1016.2
20260905161120 31 360 12.9 27.4 0.00 0.00 0.00 65 1016.2
20260905161042 31 360 12.9 22.5 0.00 0.00 0.00 65 1016.2
20260905160920 31 360 8.0 17.7 0.00 0.00 0.00 65 1016.1
20260905160821 31 360 6.4 17.7 0.00 0.00 0.00 66 1016.1
20260905160721 31 360 9.7 17.7 0.00 0.00 0.00 66 1016.2
20260905160642 31 360 11.3 17.7 0.00 0.00 0.00 66 1016.2
20260905160521 31 360 9.7 17.7 0.00 0.00 0.00 66 1016.2
20260905160420 31 360 8.0 17.7 0.00 0.00 0.00 66 1016.1
20260905160325 31 360 8.0 17.7 0.00 0.00 0.00 66 1016.2
20260905160246 31 360 9.7 17.7 0.00 0.00 0.00 66 1016.2
20260905160125 31 360 9.7 17.7 0.00 0.00 0.00 66 1016.1
20260905160025 32 165 9.7 16.1 0.00 0.00 0.00 65 1016.1
20260905155926 32 360 8.0 16.1 0.00 0.00 0.00 65 1016.2
20260905155848 32 360 6.4 16.1 0.00 0.00 0.00 64 1016.1
20260905155725 32 360 4.8 16.1 0.00 0.00 0.00 65 1016.1
20260905155626 32 360 3.2 6.4 0.00 0.00 0.00 66 1016.1
20260905155531 32 360 3.2 8.0 0.00 0.00 0.00 66 1016.1
20260905155430 32 360 3.2 8.0 0.00 0.00 0.00 66 1016.1
20260905155330 32 360 1.6 8.0 0.00 0.00 0.00 68 1016.1
20260905155231 31 360 3.2 9.7 0.00 0.00 0.00 70 1016.1
20260905155151 31 360 3.2 12.9 0.00 0.00 0.00 70 1016.2
20260905155051 31 360 3.2 12.9 0.00 0.00 0.00 70 1016.2
20260905154931 31 360 4.8 14.5 0.00 0.00 0.00 70 1016.1
20260905154831 30 360 3.2 14.5 0.00 0.00 0.00 71 1016.1
20260905154735 30 360 4.8 14.5 0.00 0.00 0.00 71 1016.1
20260905154636 30 360 3.2 19.3 0.00 0.00 0.00 71 1016.2
20260905154556 30 360 4.8 19.3 0.00 0.00 0.00 72 1016.1
20260905154416 30 188 6.4 19.3 0.00 0.00 0.00 71 1016.2
20260905154317 30 360 6.4 19.3 0.00 0.00 0.00 73 1016.1
20260905154217 30 360 6.4 19.3 0.00 0.00 0.00 72 1016.1
20260905154117 30 360 9.7 19.3 0.00 0.00 0.00 74 1016.1
20260905154022 29 360 9.7 19.3 0.00 0.00 0.00 74 1016.2
20260905153943 29 360 11.3 19.3 0.00 0.00 0.00 73 1016.2
20260905153823 29 360 9.7 19.3 0.00 0.00 0.00 72 1016.2
20260905153724 29 360 8.0 19.3 0.00 0.00 0.00 72 1016.2
20260905153622 30 360 6.4 19.3 0.00 0.00 0.00 72 1016.1
20260905153523 30 360 4.8 19.3 0.00 0.00 0.00 72 1016.1
20260905153423 30 360 6.4 19.3 0.00 0.00 0.00 73 1016.2
20260905153324 30 360 8.0 24.1 0.00 0.00 0.00 73 1016.1
20260905153229 30 360 8.0 24.1 0.00 0.00 0.00 73 1016.1
20260905153130 29 360 8.0 24.1 0.00 0.00 0.00 73 1016.2
20260905153030 29 360 9.7 24.1 0.00 0.00 0.00 73 1016.1
20260905152931 29 360 9.7 24.1 0.00 0.00 0.00 74 1016.1
20260905152832 29 360 11.3 24.1 0.00 0.00 0.00 73 1016.1
20260905152733 30 360 14.5 24.1 0.00 0.00 0.00 73 1016.1
20260905152616 30 360 11.3 24.1 0.00 0.00 0.00 73 1016.2
20260905152517 30 360 8.0 24.1 0.00 0.00 0.00 73 1016.2
20260905152416 30 360 4.8 17.7 0.00 0.00 0.00 75 1016.1
20260905152317 30 360 4.8 17.7 0.00 0.00 0.00 75 1016.2
20260905152218 30 360 6.4 17.7 0.00 0.00 0.00 76 1016.1
20260905152138 29 360 8.0 17.7 0.00 0.00 0.00 76 1016.1
20260905152018 29 360 8.0 17.7 0.00 0.00 0.00 76 1016.2
20260905151922 29 360 8.0 17.7 0.00 0.00 0.00 76 1016.2
20260905151822 29 360 9.7 17.7 0.00 0.00 0.00 77 1016.2
20260905151743 28 360 9.7 17.7 0.00 0.00 0.00 77 1016.2
20260905151643 28 360 8.0 17.7 0.00 0.00 0.00 77 1016.2
20260905151516 28 360 4.8 17.7 0.00 0.00 0.00 77 1016.2
20260905151417 28 360 3.2 16.1 0.00 0.00 0.00 78 1016.2
20260905151317 28 166 4.8 17.7 0.00 0.00 0.00 78 1016.3
20260905151222 28 360 6.4 17.7 0.00 0.00 0.00 78 1016.3
20260905151121 28 360 6.4 17.7 0.00 0.00 0.00 78 1016.2
20260905151042 28 360 8.0 17.7 0.00 0.00 0.00 78 1016.2
20260905150922 28 360 6.4 17.7 0.00 0.00 0.00 78 1016.2
20260905150823 28 360 6.4 17.7 0.00 0.00 0.00 78 1016.3
20260905150725 28 360 6.4 17.7 0.00 0.00 0.00 78 1016.3
20260905150624 28 360 8.0 17.7 0.00 0.00 0.00 78 1016.3
20260905150529 28 360 9.7 17.7 0.00 0.00 0.00 78 1016.3
20260905150430 28 360 9.7 17.7 0.00 0.00 0.00 77 1016.3
20260905150331 28 360 8.0 17.7 0.00 0.00 0.00 77 1016.2
20260905150251 28 360 9.7 17.7 0.00 0.00 0.00 77 1016.3
20260905150131 28 360 8.0 17.7 0.00 0.00 0.00 77 1016.3
20260905150031 29 360 9.7 17.7 0.00 0.00 0.00 77 1016.3
20260905145930 29 360 8.0 17.7 0.00 0.00 0.00 79 1016.2
20260905145832 29 360 6.4 17.7 0.00 0.00 0.00 79 1016.2
20260905145716 28 360 6.4 17.7 0.00 0.00 0.00 78 1016.2
20260905145616 28 360 8.0 17.7 0.00 0.00 0.00 78 1016.2
20260905145518 28 360 9.7 17.7 0.00 0.00 0.00 78 1016.2
20260905145418 28 360 9.7 17.7 0.00 0.00 0.00 78 1016.2
20260905145318 28 360 8.0 17.7 0.00 0.00 0.00 78 1016.2
20260905145219 29 360 6.4 14.5 0.00 0.00 0.00 78 1016.2
20260905145123 29 360 4.8 14.5 0.00 0.00 0.00 78 1016.1
20260905145044 29 360 3.2 14.5 0.00 0.00 0.00 79 1016.1
20260905144923 29 360 1.6 12.9 0.00 0.00 0.00 79 1016.1
20260905144824 28 360 0.0 12.9 0.00 0.00 0.00 80 1016.1
20260905144723 28 360 1.6 12.9 0.00 0.00 0.00 81 1016.1
20260905144624 28 360 3.2 12.9 0.00 0.00 0.00 81 1016.1
20260905144524 28 360 3.2 16.1 0.00 0.00 0.00 82 1016.1
20260905144429 27 360 3.2 17.7 0.00 0.00 0.00 82 1016.0
20260905144328 27 360 3.2 17.7 0.00 0.00 0.00 82 1016.1
20260905144249 27 360 4.8 17.7 0.00 0.00 0.00 82 1016.1
20260905144147 27 360 4.8 17.7 0.00 0.00 0.00 82 1016.1
20260905144028 27 360 6.4 17.7 0.00 0.00 0.00 82 1016.1
20260905143928 27 360 8.0 17.7 0.00 0.00 0.00 82 1016.0
20260905143829 27 360 8.0 17.7 0.00 0.00 0.00 82 1016.1
20260905143733 27 360 8.0 17.7 0.00 0.00 0.00 82 1016.1
20260905143653 27 360 8.0 17.7 0.00 0.00 0.00 82 1016.1
20260905143553 27 360 9.7 17.7 0.00 0.00 0.00 82 1016.1
20260905143433 27 360 9.7 17.7 0.00 0.00 0.00 82 1016.1
20260905143334 27 360 9.7 17.7 0.00 0.00 0.00 82 1016.1
20260905143235 27 360 9.7 19.3 0.00 0.00 0.00 82 1016.1
20260905143135 27 360 9.7 19.3 0.00 0.00 0.00 82 1016.1
20260905143019 27 360 8.0 19.3 0.00 0.00 0.00 82 1016.0
20260905142939 27 178 8.0 19.3 0.00 0.00 0.00 82 1015.9
20260905142821 27 360 6.4 19.3 0.00 0.00 0.00 83 1016.0
20260905142722 27 176 6.4 19.3 0.00 0.00 0.00 83 1016.1
20260905142622 27 360 8.0 19.3 0.00 0.00 0.00 83 1016.0
20260905142523 27 360 11.3 19.3 0.00 0.00 0.00 83 1016.1
20260905142444 27 360 11.3 19.3 0.00 0.00 0.00 82 1016.0
20260905142324 27 360 9.7 19.3 0.00 0.00 0.00 82 1016.1
20260905142228 27 360 9.7 19.3 0.00 0.00 0.00 83 1016.1
20260905142129 27 360 6.4 14.5 0.00 0.00 0.00 84 1016.1
20260905142029 27 360 6.4 14.5 0.00 0.00 0.00 84 1016.1
20260905141929 27 360 6.4 14.5 0.00 0.00 0.00 85 1016.0
20260905141849 27 360 6.4 14.5 0.00 0.00 0.00 85 1016.0
20260905141728 27 360 8.0 14.5 0.00 0.00 0.00 85 1016.0
20260905141628 27 159 6.4 14.5 0.00 0.00 0.00 85 1016.0
20260905141553 27 360 4.8 14.5 0.00 0.00 0.00 86 1016.0
20260905141432 27 166 6.4 14.5 0.00 0.00 0.00 86 1016.0
20260905141353 27 360 8.0 14.5 0.00 0.00 0.00 85 1016.0
20260905141232 27 161 8.0 14.5 0.00 0.00 0.00 86 1015.9
20260905141133 27 360 4.8 12.9 0.00 0.00 0.00 86 1016.0
20260905141032 27 360 4.8 16.1 0.00 0.00 0.00 87 1015.9
20260905140933 27 360 4.8 16.1 0.00 0.00 0.00 87 1015.8
20260905140837 27 360 4.8 16.1 0.00 0.00 0.00 87 1015.9
20260905140758 27 360 3.2 16.1 0.00 0.00 0.00 88 1015.8
20260905140636 26 360 3.2 16.1 0.00 0.00 0.00 88 1015.8
20260905140516 26 360 4.8 16.1 0.00 0.00 0.00 87 1015.8
20260905140417 26 360 8.0 16.1 0.00 0.00 0.00 87 1015.9
20260905140318 26 360 9.7 16.1 0.00 0.00 0.00 87 1015.8
20260905140240 26 360 8.0 16.1 0.00 0.00 0.00 88 1015.9
20260905140119 26 360 4.8 8.0 0.00 0.00 0.00 88 1015.9
20260905140023 26 360 3.2 8.0 0.00 0.00 0.00 88 1015.9
20260905135924 26 360 1.6 4.8 0.00 0.00 0.00 89 1015.9
20260905135825 26 360 1.6 4.8 0.00 0.00 0.00 89 1015.8
20260905135726 26 360 3.2 4.8 0.00 0.00 0.00 89 1015.9
20260905135626 26 360 1.6 4.8 0.00 0.00 0.00 89 1015.9
20260905135527 26 360 1.6 4.8 0.00 0.00 0.00 89 1015.8
20260905135448 26 360 1.6 4.8 0.00 0.00 0.00 89 1015.9
20260905135332 26 360 1.6 4.8 0.00 0.00 0.00 89 1015.9
20260905135233 26 165 1.6 6.4 0.00 0.00 0.00 89 1015.8
20260905135134 26 360 1.6 3.2 0.00 0.00 0.00 89 1015.8
20260905135034 26 165 1.6 3.2 0.00 0.00 0.00 89 1015.8
20260905134935 26 360 1.6 4.8 0.00 0.00 0.00 89 1015.8
20260905134816 26 165 1.6 4.8 0.00 0.00 0.00 89 1015.8
20260905134722 26 360 1.6 4.8 0.00 0.00 0.00 89 1015.8
20260905134622 26 360 1.6 4.8 0.00 0.00 0.00 90 1015.8
20260905134542 26 360 1.6 4.8 0.00 0.00 0.00 90 1015.8
20260905134416 26 360 1.6 4.8 0.00 0.00 0.00 90 1015.9
20260905134316 26 360 0.0 4.8 0.00 0.00 0.00 90 1015.8
20260905134217 26 360 1.6 4.8 0.00 0.00 0.00 90 1015.8
20260905134122 26 360 1.6 4.8 0.00 0.00 0.00 90 1015.8
20260905134022 26 360 3.2 4.8 0.00 0.00 0.00 90 1015.8
20260905133922 26 360 1.6 4.8 0.00 0.00 0.00 90 1015.7
20260905133824 26 360 1.6 4.8 0.00 0.00 0.00 90 1015.8
20260905133723 26 360 1.6 8.0 0.00 0.00 0.00 90 1015.8
20260905133624 26 360 1.6 8.0 0.00 0.00 0.00 90 1015.8
20260905133524 25 360 3.2 8.0 0.00 0.00 0.00 91 1015.7
20260905133429 25 360 3.2 8.0 0.00 0.00 0.00 91 1015.7
20260905133329 25 360 3.2 8.0 0.00 0.00 0.00 91 1015.7
20260905133229 25 360 3.2 8.0 0.00 0.00 0.00 91 1015.6
20260905133150 25 360 3.2 8.0 0.00 0.00 0.00 91 1015.8
20260905133049 25 360 4.8 8.0 0.00 0.00 0.00 91 1015.7
20260905132928 25 360 4.8 8.0 0.00 0.00 0.00 91 1015.7
20260905132829 25 360 4.8 6.4 0.00 0.00 0.00 91 1015.7
20260905132729 25 360 4.8 6.4 0.00 0.00 0.00 91 1015.8
20260905132654 25 360 3.2 6.4 0.00 0.00 0.00 91 1015.8
20260905132533 25 360 3.2 4.8 0.00 0.00 0.00 91 1015.7
20260905132433 25 179 3.2 4.8 0.00 0.00 0.00 91 1015.8
20260905132352 25 360 1.6 4.8 0.00 0.00 0.00 91 1015.6
20260905132232 25 186 0.0 3.2 0.00 0.00 0.00 91 1015.7
20260905132131 25 360 0.0 3.2 0.00 0.00 0.00 91 1015.6
20260905132052 25 186 1.6 3.2 0.00 0.00 0.00 91 1015.6
20260905131930 25 186 1.6 3.2 0.00 0.00 0.00 91 1015.6
20260905131831 25 360 1.6 3.2 0.00 0.00 0.00 91 1015.6
20260905131751 25 360 1.6 3.2 0.00 0.00 0.00 91 1015.6
20260905131633 25 360 1.6 3.2 0.00 0.00 0.00 91 1015.6
20260905131534 25 360 1.6 3.2 0.00 0.00 0.00 91 1015.5
20260905131435 25 360 1.6 3.2 0.00 0.00 0.00 91 1015.5
20260905131336 25 360 1.6 3.2 0.00 0.00 0.00 91 1015.5
20260905131216 25 360 1.6 3.2 0.00 0.00 0.00 91 1015.5
20260905131117 25 360 1.6 3.2 0.00 0.00 0.00 91 1015.5
20260905131021 25 360 1.6 3.2 0.00 0.00 0.00 91 1015.4
20260905130921 25 186 0.0 3.2 0.00 0.00 0.00 91 1015.5
20260905130823 25 186 0.0 1.6 0.00 0.00 0.00 91 1015.4
20260905130723 25 360 0.0 1.6 0.00 0.00 0.00 91 1015.5
20260905130624 25 360 0.0 1.6 0.00 0.00 0.00 91 1015.5
20260905130545 25 360 0.0 3.2 0.00 0.00 0.00 91 1015.5
20260905130444 25 360 0.0 3.2 0.00 0.00 0.00 91 1015.4
20260905130323 25 360 0.0 6.4 0.00 0.00 0.00 91 1015.4
20260905130242 25 360 0.0 6.4 0.00 0.00 0.00 91 1015.4
20260905130126 25 360 0.0 6.4 0.00 0.00 0.00 91 1015.4
20260905130027 25 360 0.0 6.4 0.00 0.00 0.00 91 1015.4
20260905125928 25 360 0.0 6.4 0.00 0.00 0.00 91 1015.5
20260905125849 25 360 0.0 6.4 0.00 0.00 0.00 91 1015.4
20260905125727 24 360 0.0 6.4 0.00 0.00 0.00 91 1015.4
20260905125628 24 360 1.6 6.4 0.00 0.00 0.00 91 1015.4
20260905125529 24 360 1.6 6.4 0.00 0.00 0.00 91 1015.3
20260905125434 24 186 1.6 6.4 0.00 0.00 0.00 91 1015.4
20260905125334 24 186 1.6 6.4 0.00 0.00 0.00 91 1015.3
20260905125234 24 360 0.0 0.0 0.00 0.00 0.00 91 1015.3
20260905125135 24 360 0.0 0.0 0.00 0.00 0.00 91 1015.3
20260905125036 24 360 0.0 0.0 0.00 0.00 0.00 91 1015.2
20260905124935 24 360 0.0 0.0 0.00 0.00 0.00 91 1015.2
20260905124820 24 360 0.0 0.0 0.00 0.00 0.00 91 1015.2
20260905124741 24 360 0.0 0.0 0.00 0.00 0.00 91 1015.2
20260905124621 24 360 0.0 0.0 0.00 0.00 0.00 91 1015.2
20260905124519 24 360 0.0 0.0 0.00 0.00 0.00 91 1015.2
20260905124420 24 360 0.0 0.0 0.00 0.00 0.00 91 1015.2
20260905124320 23 360 0.0 0.0 0.00 0.00 0.00 91 1015.1
20260905124220 23 185 0.0 0.0 0.00 0.00 0.00 91 1015.1
20260905124141 23 360 0.0 0.0 0.00 0.00 0.00 91 1015.2
20260905124041 23 185 0.0 0.0 0.00 0.00 0.00 91 1015.1
20260905123925 23 185 0.0 0.0 0.00 0.00 0.00 91 1015.1
20260905123825 23 185 0.0 0.0 0.00 0.00 0.00 91 1015.1
20260905123724 23 360 0.0 0.0 0.00 0.00 0.00 91 1015.1
20260905123624 23 185 0.0 0.0 0.00 0.00 0.00 91 1015.1
20260905123523 23 185 0.0 0.0 0.00 0.00 0.00 91 1015.1
20260905123423 23 185 0.0 0.0 0.00 0.00 0.00 91 1015.2
20260905123324 23 185 0.0 0.0 0.00 0.00 0.00 91 1015.1
20260905123228 23 185 0.0 0.0 0.00 0.00 0.00 91 1015.1
20260905123129 23 185 0.0 0.0 0.00 0.00 0.00 91 1015.1
20260905123030 23 185 0.0 0.0 0.00 0.00 0.00 91 1015.1
20260905122931 23 185 0.0 0.0 0.00 0.00 0.00 91 1015.1
20260905122833 23 185 0.0 0.0 0.00 0.00 0.00 91 1015.2
20260905122733 23 185 0.0 0.0 0.00 0.00 0.00 91 1015.1
20260905122617 23 185 0.0 0.0 0.00 0.00 0.00 91 1015.1
20260905122517 23 185 0.0 0.0 0.00 0.00 0.00 90 1015.2
20260905122419 23 185 0.0 0.0 0.00 0.00 0.00 90 1015.1
20260905122319 23 185 0.0 0.0 0.00 0.00 0.00 90 1015.2
20260905122221 23 185 0.0 0.0 0.00 0.00 0.00 90 1015.2
20260905122121 23 185 0.0 0.0 0.00 0.00 0.00 91 1015.1
20260905122021 23 185 0.0 0.0 0.00 0.00 0.00 91 1015.2
20260905121926 23 185 0.0 0.0 0.00 0.00 0.00 90 1015.1
20260905121847 23 185 0.0 0.0 0.00 0.00 0.00 90 1015.1
20260905121726 23 185 0.0 0.0 0.00 0.00 0.00 90 1015.1
20260905121627 23 185 0.0 0.0 0.00 0.00 0.00 90 1015.2
20260905121526 23 185 0.0 0.0 0.00 0.00 0.00 90 1015.1
20260905121447 23 360 0.0 0.0 0.00 0.00 0.00 90 1015.1
20260905121327 23 185 0.0 0.0 0.00 0.00 0.00 90 1015.1
20260905121232 23 185 0.0 0.0 0.00 0.00 0.00 90 1015.1
20260905121132 23 185 0.0 0.0 0.00 0.00 0.00 90 1015.1
20260905121033 24 185 0.0 0.0 0.00 0.00 0.00 90 1015.0
20260905120934 24 185 0.0 0.0 0.00 0.00 0.00 90 1015.0
20260905120835 24 360 0.0 0.0 0.00 0.00 0.00 90 1015.0
20260905120735 24 360 0.0 0.0 0.00 0.00 0.00 90 1015.0
20260905120620 24 360 0.0 0.0 0.00 0.00 0.00 90 1015.0
20260905120519 24 360 0.0 0.0 0.00 0.00 0.00 90 1015.0
20260905120421 24 360 0.0 0.0 0.00 0.00 0.00 90 1014.9
20260905120321 24 360 0.0 0.0 0.00 0.00 0.00 90 1015.0
20260905120242 24 360 0.0 0.0 0.00 0.00 0.00 90 1015.0
20260905120121 24 360 0.0 0.0 0.00 0.00 0.00 90 1015.0
20260905120021 24 360 0.0 0.0 0.00 0.00 0.00 90 1015.0
20260905115921 24 185 0.0 0.0 0.00 0.00 0.00 90 1015.0
20260905115827 24 360 0.0 0.0 0.00 0.00 0.00 90 1015.0
20260905115727 24 185 0.0 0.0 0.00 0.00 0.00 90 1015.0
20260905115646 24 185 0.0 0.0 0.00 0.00 0.00 90 1015.1
20260905115526 24 360 0.0 0.0 0.00 0.00 0.00 90 1015.0
20260905115427 24 360 0.0 0.0 0.00 0.00 0.00 90 1015.0
20260905115327 24 360 0.0 0.0 0.00 0.00 0.00 90 1015.1
20260905115228 24 360 0.0 0.0 0.00 0.00 0.00 90 1015.1
20260905115133 24 360 0.0 0.0 0.00 0.00 0.00 90 1015.0
20260905115034 24 360 0.0 0.0 0.00 0.00 0.00 90 1015.0
20260905114935 24 360 0.0 0.0 0.00 0.00 0.00 90 1015.0
20260905114836 24 360 0.0 0.0 0.00 0.00 0.00 90 1014.9
20260905114717 24 360 0.0 0.0 0.00 0.00 0.00 90 1014.9
20260905114617 24 360 0.0 0.0 0.00 0.00 0.00 90 1014.9
20260905114520 24 360 0.0 0.0 0.00 0.00 0.00 90 1014.9
20260905114421 24 360 0.0 0.0 0.00 0.00 0.00 90 1015.0
20260905114321 24 360 0.0 0.0 0.00 0.00 0.00 90 1014.9
20260905114242 24 185 0.0 0.0 0.00 0.00 0.00 90 1014.8
20260905114123 24 185 0.0 0.0 0.00 0.00 0.00 90 1014.8
20260905114045 23 185 0.0 0.0 0.00 0.00 0.00 90 1014.7
20260905113925 24 360 0.0 0.0 0.00 0.00 0.00 90 1014.8
20260905113825 23 360 0.0 0.0 0.00 0.00 0.00 90 1014.8
20260905113750 24 185 0.0 0.0 0.00 0.00 0.00 90 1014.8
20260905113631 24 185 0.0 0.0 0.00 0.00 0.00 90 1014.7
20260905113552 24 185 0.0 0.0 0.00 0.00 0.00 90 1014.8
20260905113452 24 185 0.0 0.0 0.00 0.00 0.00 90 1014.7
20260905113352 24 360 0.0 0.0 0.00 0.00 0.00 89 1014.8
20260905113231 24 360 0.0 0.0 0.00 0.00 0.00 89 1014.8
20260905113132 24 360 0.0 0.0 0.00 0.00 0.00 90 1014.7
20260905113033 24 360 0.0 0.0 0.00 0.00 0.00 90 1014.8
20260905112918 24 360 0.0 0.0 0.00 0.00 0.00 90 1014.8
20260905112819 24 360 0.0 0.0 0.00 0.00 0.00 90 1014.8
20260905112720 24 360 0.0 0.0 0.00 0.00 0.00 90 1014.8
20260905112641 24 360 0.0 0.0 0.00 0.00 0.00 90 1014.8
20260905112520 24 360 0.0 0.0 0.00 0.00 0.00 89 1014.8
20260905112421 24 360 0.0 0.0 0.00 0.00 0.00 89 1014.8
20260905112321 24 360 0.0 0.0 0.00 0.00 0.00 89 1014.8
20260905112246 24 360 0.0 0.0 0.00 0.00 0.00 89 1014.8
20260905112125 24 360 0.0 0.0 0.00 0.00 0.00 89 1014.8
20260905112025 24 360 0.0 0.0 0.00 0.00 0.00 89 1014.7
20260905111927 24 360 0.0 0.0 0.00 0.00 0.00 89 1014.7
20260905111828 24 360 0.0 0.0 0.00 0.00 0.00 89 1014.7
20260905111728 24 360 0.0 0.0 0.00 0.00 0.00 89 1014.7
20260905111630 24 360 0.0 0.0 0.00 0.00 0.00 89 1014.7
20260905111534 24 360 0.0 0.0 0.00 0.00 0.00 89 1014.6
20260905111435 24 360 0.0 0.0 0.00 0.00 0.00 89 1014.6
20260905111335 24 360 0.0 0.0 0.00 0.00 0.00 89 1014.7
20260905111235 24 360 0.0 0.0 0.00 0.00 0.00 89 1014.6
20260905111117 24 360 0.0 0.0 0.00 0.00 0.00 89 1014.7
20260905111038 24 360 0.0 0.0 0.00 0.00 0.00 89 1014.7
20260905110922 24 360 0.0 0.0 0.00 0.00 0.00 89 1014.6
20260905110822 24 360 0.0 0.0 0.00 0.00 0.00 89 1014.6
20260905110723 24 360 0.0 0.0 0.00 0.00 0.00 89 1014.6
20260905110625 24 360 0.0 0.0 0.00 0.00 0.00 89 1014.7
20260905110526 24 360 0.0 0.0 0.00 0.00 0.00 89 1014.7
20260905110425 24 360 0.0 0.0 0.00 0.00 0.00 89 1014.7
20260905110326 24 360 0.0 0.0 0.00 0.00 0.00 89 1014.7
20260905110250 24 360 0.0 0.0 0.00 0.00 0.00 89 1014.6
20260905110130 24 360 0.0 0.0 0.00 0.00 0.00 89 1014.6
20260905110029 24 360 0.0 0.0 0.00 0.00 0.00 89 1014.6
20260905105930 24 360 0.0 0.0 0.00 0.00 0.00 89 1014.6
20260905105832 24 360 0.0 0.0 0.00 0.00 0.00 89 1014.6
20260905105752 24 360 0.0 0.0 0.00 0.00 0.00 89 1014.6
20260905105631 24 360 0.0 0.0 0.00 0.00 0.00 89 1014.6
20260905105516 24 360 0.0 0.0 0.00 0.00 0.00 89 1014.7
20260905105416 24 360 0.0 0.0 0.00 0.00 0.00 89 1014.6
20260905105337 24 360 0.0 0.0 0.00 0.00 0.00 89 1014.6
20260905105236 24 360 0.0 0.0 0.00 0.00 0.00 89 1014.5
20260905105116 24 360 0.0 0.0 0.00 0.00 0.00 89 1014.6
20260905105017 24 360 0.0 0.0 0.00 0.00 0.00 89 1014.6
20260905104918 25 360 0.0 0.0 0.00 0.00 0.00 89 1014.5
20260905104823 24 360 0.0 0.0 0.00 0.00 0.00 89 1014.5
20260905104724 24 360 0.0 0.0 0.00 0.00 0.00 89 1014.5
20260905104624 25 360 0.0 0.0 0.00 0.00 0.00 89 1014.5
20260905104525 25 360 0.0 0.0 0.00 0.00 0.00 89 1014.5
20260905104445 25 360 0.0 0.0 0.00 0.00 0.00 89 1014.6
20260905104325 25 360 0.0 0.0 0.00 0.00 0.00 89 1014.5
20260905104245 25 360 0.0 0.0 0.00 0.00 0.00 89 1014.5
20260905104125 25 360 0.0 0.0 0.00 0.00 0.00 89 1014.6
20260905104029 25 360 0.0 0.0 0.00 0.00 0.00 89 1014.5
20260905103930 25 360 0.0 0.0 0.00 0.00 0.00 89 1014.5
20260905103830 25 360 0.0 0.0 0.00 0.00 0.00 89 1014.5
20260905103751 25 360 0.0 0.0 0.00 0.00 0.00 89 1014.5
20260905103629 25 360 0.0 0.0 0.00 0.00 0.00 89 1014.5
20260905103528 25 360 0.0 0.0 0.00 0.00 0.00 89 1014.5
20260905103429 25 360 0.0 0.0 0.00 0.00 0.00 89 1014.5
20260905103334 25 360 0.0 0.0 0.00 0.00 0.00 89 1014.6
20260905103235 25 360 0.0 0.0 0.00 0.00 0.00 89 1014.5
20260905103134 25 360 0.0 0.0 0.00 0.00 0.00 89 1014.6
20260905103034 25 360 0.0 0.0 0.00 0.00 0.00 89 1014.5
20260905102935 25 360 0.0 0.0 0.00 0.00 0.00 89 1014.6
20260905102836 25 360 0.0 0.0 0.00 0.00 0.00 89 1014.5
20260905102716 25 360 0.0 0.0 0.00 0.00 0.00 89 1014.5
20260905102640 25 360 0.0 0.0 0.00 0.00 0.00 89 1014.4
20260905102519 25 360 0.0 0.0 0.00 0.00 0.00 89 1014.5
20260905102419 25 360 0.0 3.2 0.00 0.00 0.00 89 1014.4
20260905102320 25 360 0.0 3.2 0.00 0.00 0.00 89 1014.5
20260905102220 25 360 0.0 3.2 0.00 0.00 0.00 89 1014.5
20260905102120 25 360 0.0 3.2 0.00 0.00 0.00 89 1014.5
20260905102042 25 360 0.0 3.2 0.00 0.00 0.00 89 1014.5
20260905101921 25 360 0.0 4.8 0.00 0.00 0.00 89 1014.5
20260905101842 25 360 0.0 4.8 0.00 0.00 0.00 89 1014.5
20260905101726 25 360 0.0 4.8 0.00 0.00 0.00 89 1014.5
20260905101646 25 360 1.6 4.8 0.00 0.00 0.00 89 1014.4
20260905101525 25 360 1.6 4.8 0.00 0.00 0.00 89 1014.4
20260905101426 25 360 1.6 4.8 0.00 0.00 0.00 89 1014.4
20260905101347 25 360 1.6 4.8 0.00 0.00 0.00 89 1014.3
20260905101228 25 360 1.6 4.8 0.00 0.00 0.00 89 1014.4
20260905101126 25 360 1.6 4.8 0.00 0.00 0.00 89 1014.4
20260905101027 25 360 1.6 4.8 0.00 0.00 0.00 89 1014.3
20260905100952 25 360 0.0 3.2 0.00 0.00 0.00 89 1014.4
20260905100831 25 360 0.0 1.6 0.00 0.00 0.00 89 1014.4
20260905100732 25 185 0.0 1.6 0.00 0.00 0.00 89 1014.4
20260905100632 25 360 0.0 1.6 0.00 0.00 0.00 89 1014.5
20260905100533 25 360 0.0 3.2 0.00 0.00 0.00 89 1014.4
20260905100454 25 360 0.0 3.2 0.00 0.00 0.00 89 1014.5
20260905100334 25 360 0.0 3.2 0.00 0.00 0.00 88 1014.4
20260905100219 25 360 0.0 3.2 0.00 0.00 0.00 88 1014.5
20260905100118 25 360 0.0 3.2 0.00 0.00 0.00 88 1014.4
20260905100019 25 360 0.0 3.2 0.00 0.00 0.00 88 1014.4
20260905095939 25 360 1.6 3.2 0.00 0.00 0.00 88 1014.5
20260905095820 25 360 1.6 3.2 0.00 0.00 0.00 88 1014.5
20260905095718 25 360 1.6 3.2 0.00 0.00 0.00 88 1014.4
20260905095619 25 360 1.6 3.2 0.00 0.00 0.00 88 1014.4
20260905095524 25 360 1.6 3.2 0.00 0.00 0.00 88 1014.4
20260905095425 25 360 1.6 3.2 0.00 0.00 0.00 88 1014.4
20260905095346 25 360 1.6 3.2 0.00 0.00 0.00 88 1014.4
20260905095224 25 360 1.6 3.2 0.00 0.00 0.00 88 1014.4
20260905095126 25 360 0.0 1.6 0.00 0.00 0.00 88 1014.3
20260905095026 25 360 0.0 1.6 0.00 0.00 0.00 88 1014.4
20260905094926 25 360 0.0 0.0 0.00 0.00 0.00 88 1014.3
20260905094827 25 360 0.0 0.0 0.00 0.00 0.00 88 1014.3
20260905094730 25 360 0.0 0.0 0.00 0.00 0.00 88 1014.3
20260905094650 25 360 0.0 0.0 0.00 0.00 0.00 88 1014.3
20260905094530 25 360 0.0 0.0 0.00 0.00 0.00 88 1014.3
20260905094431 25 360 0.0 0.0 0.00 0.00 0.00 89 1014.3
20260905094331 25 360 0.0 0.0 0.00 0.00 0.00 88 1014.3
20260905094232 25 360 0.0 0.0 0.00 0.00 0.00 88 1014.2
20260905094116 25 360 0.0 0.0 0.00 0.00 0.00 88 1014.2
20260905094037 25 185 0.0 0.0 0.00 0.00 0.00 88 1014.3
20260905093917 25 185 0.0 0.0 0.00 0.00 0.00 88 1014.2
20260905093817 25 185 0.0 1.6 0.00 0.00 0.00 88 1014.3
20260905093719 25 185 0.0 1.6 0.00 0.00 0.00 88 1014.2
20260905093621 25 185 0.0 1.6 0.00 0.00 0.00 88 1014.1
20260905093521 25 185 0.0 3.2 0.00 0.00 0.00 88 1014.2
20260905093426 25 360 0.0 3.2 0.00 0.00 0.00 88 1014.2
20260905093325 25 360 0.0 3.2 0.00 0.00 0.00 88 1014.1
20260905093225 25 360 0.0 3.2 0.00 0.00 0.00 88 1014.2
20260905093127 25 185 0.0 3.2 0.00 0.00 0.00 88 1014.1
20260905093028 25 185 0.0 3.2 0.00 0.00 0.00 88 1014.1
20260905092949 25 360 0.0 3.2 0.00 0.00 0.00 88 1014.1
20260905092829 25 360 0.0 3.2 0.00 0.00 0.00 88 1014.1
20260905092729 25 360 1.6 3.2 0.00 0.00 0.00 88 1014.1
20260905092633 25 360 1.6 3.2 0.00 0.00 0.00 88 1014.1
20260905092534 25 360 1.6 3.2 0.00 0.00 0.00 88 1014.2
20260905092454 25 360 1.6 3.2 0.00 0.00 0.00 88 1014.2
20260905092333 25 360 0.0 6.4 0.00 0.00 0.00 88 1014.2
20260905092253 25 360 0.0 6.4 0.00 0.00 0.00 88 1014.1
20260905092153 25 360 0.0 6.4 0.00 0.00 0.00 88 1014.2
20260905092032 25 360 0.0 6.4 0.00 0.00 0.00 88 1014.2
20260905091933 25 360 1.6 6.4 0.00 0.00 0.00 88 1014.2
20260905091817 25 360 1.6 6.4 0.00 0.00 0.00 88 1014.2
20260905091717 25 360 1.6 6.4 0.00 0.00 0.00 88 1014.2
20260905091618 25 360 1.6 6.4 0.00 0.00 0.00 89 1014.3
20260905091519 25 360 3.2 6.4 0.00 0.00 0.00 89 1014.3
20260905091419 25 360 3.2 8.0 0.00 0.00 0.00 88 1014.4
20260905091319 25 360 1.6 8.0 0.00 0.00 0.00 88 1014.4
20260905091224 25 360 1.6 8.0 0.00 0.00 0.00 88 1014.4
20260905091126 25 360 1.6 8.0 0.00 0.00 0.00 88 1014.3
20260905091026 25 185 1.6 8.0 0.00 0.00 0.00 88 1014.3
20260905090927 25 360 1.6 8.0 0.00 0.00 0.00 88 1014.3
20260905090825 25 360 3.2 8.0 0.00 0.00 0.00 88 1014.3
20260905090725 25 360 3.2 8.0 0.00 0.00 0.00 88 1014.4
20260905090625 25 360 4.8 8.0 0.00 0.00 0.00 88 1014.4
20260905090530 25 360 4.8 8.0 0.00 0.00 0.00 88 1014.3
20260905090451 25 360 3.2 6.4 0.00 0.00 0.00 88 1014.3
20260905090330 25 360 3.2 6.4 0.00 0.00 0.00 88 1014.3
20260905090230 25 360 3.2 8.0 0.00 0.00 0.00 88 1014.3
20260905090131 25 360 3.2 8.0 0.00 0.00 0.00 88 1014.3
20260905090051 25 360 3.2 8.0 0.00 0.00 0.00 88 1014.3
20260905085930 25 360 3.2 8.0 0.00 0.00 0.00 88 1014.3
20260905085832 25 360 3.2 9.7 0.00 0.00 0.00 88 1014.3
20260905085734 25 360 1.6 9.7 0.00 0.00 0.00 88 1014.5
20260905085634 25 185 1.6 12.9 0.00 0.00 0.00 88 1014.3
20260905085534 25 360 3.2 12.9 0.00 0.00 0.00 88 1014.4
20260905085455 25 360 3.2 12.9 0.00 0.00 0.00 88 1014.4
20260905085334 25 360 3.2 12.9 0.00 0.00 0.00 88 1014.4
20260905085235 25 360 3.2 12.9 0.00 0.00 0.00 88 1014.4
20260905085156 25 360 3.2 12.9 0.00 0.00 0.00 88 1014.4
20260905085019 25 360 4.8 12.9 0.00 0.00 0.00 88 1014.4
20260905084919 25 360 6.4 12.9 0.00 0.00 0.00 88 1014.4
20260905084819 25 360 6.4 12.9 0.00 0.00 0.00 88 1014.4
20260905084718 25 360 6.4 12.9 0.00 0.00 0.00 88 1014.4
20260905084619 25 360 4.8 12.9 0.00 0.00 0.00 87 1014.5
20260905084520 25 360 6.4 16.1 0.00 0.00 0.00 87 1014.4
20260905084420 25 360 4.8 16.1 0.00 0.00 0.00 87 1014.5
20260905084320 25 360 6.4 16.1 0.00 0.00 0.00 87 1014.4
20260905084225 25 360 6.4 16.1 0.00 0.00 0.00 87 1014.4
20260905084127 25 360 6.4 16.1 0.00 0.00 0.00 87 1014.4
20260905084028 25 360 6.4 16.1 0.00 0.00 0.00 87 1014.4
20260905083928 25 360 8.0 16.1 0.00 0.00 0.00 87 1014.4
20260905083828 25 360 8.0 16.1 0.00 0.00 0.00 87 1014.4
20260905083729 25 360 8.0 16.1 0.00 0.00 0.00 87 1014.4
20260905083633 25 360 6.4 16.1 0.00 0.00 0.00 87 1014.5
20260905083554 25 360 6.4 16.1 0.00 0.00 0.00 87 1014.5
20260905083434 25 360 6.4 16.1 0.00 0.00 0.00 87 1014.4
20260905083335 25 360 8.0 16.1 0.00 0.00 0.00 87 1014.5
20260905083216 25 360 6.4 16.1 0.00 0.00 0.00 87 1014.4
20260905083116 25 360 8.0 16.1 0.00 0.00 0.00 87 1014.5
20260905083038 25 360 6.4 14.5 0.00 0.00 0.00 87 1014.5
20260905082921 25 360 6.4 14.5 0.00 0.00 0.00 87 1014.5
20260905082822 25 360 6.4 14.5 0.00 0.00 0.00 87 1014.4
20260905082719 25 360 4.8 14.5 0.00 0.00 0.00 87 1014.5
20260905082620 25 360 4.8 14.5 0.00 0.00 0.00 87 1014.4
20260905082541 25 360 4.8 16.1 0.00 0.00 0.00 87 1014.5
20260905082420 25 360 6.4 16.1 0.00 0.00 0.00 87 1014.5
20260905082320 25 360 8.0 16.1 0.00 0.00 0.00 87 1014.4
20260905082219 25 360 6.4 16.1 0.00 0.00 0.00 87 1014.4
20260905082125 25 360 4.8 16.1 0.00 0.00 0.00 87 1014.5
20260905082025 25 360 3.2 16.1 0.00 0.00 0.00 87 1014.5
20260905081926 25 360 4.8 16.1 0.00 0.00 0.00 86 1014.5
20260905081826 25 360 6.4 16.1 0.00 0.00 0.00 86 1014.6
20260905081746 25 360 6.4 16.1 0.00 0.00 0.00 86 1014.6
20260905081625 25 360 4.8 14.5 0.00 0.00 0.00 86 1014.6
20260905081526 26 360 3.2 12.9 0.00 0.00 0.00 86 1014.6
20260905081430 26 360 3.2 12.9 0.00 0.00 0.00 86 1014.6
20260905081351 25 360 3.2 12.9 0.00 0.00 0.00 86 1014.6
20260905081231 26 360 3.2 12.9 0.00 0.00 0.00 86 1014.7
20260905081132 26 360 4.8 12.9 0.00 0.00 0.00 86 1014.6
20260905081031 26 360 6.4 12.9 0.00 0.00 0.00 86 1014.6
20260905080932 26 360 4.8 12.9 0.00 0.00 0.00 86 1014.7
20260905080832 26 360 6.4 14.5 0.00 0.00 0.00 86 1014.7
20260905080717 26 360 6.4 14.5 0.00 0.00 0.00 86 1014.7
20260905080617 26 360 6.4 14.5 0.00 0.00 0.00 86 1014.8
20260905080517 26 360 4.8 16.1 0.00 0.00 0.00 86 1014.7
20260905080418 26 360 4.8 16.1 0.00 0.00 0.00 86 1014.8
20260905080318 26 360 4.8 16.1 0.00 0.00 0.00 86 1014.8
20260905080219 26 360 6.4 16.1 0.00 0.00 0.00 86 1014.8
20260905080123 26 360 6.4 16.1 0.00 0.00 0.00 86 1014.8
20260905080045 26 360 4.8 16.1 0.00 0.00 0.00 86 1014.8
20260905075925 26 360 6.4 16.1 0.00 0.00 0.00 86 1014.7
20260905075827 26 360 6.4 16.1 0.00 0.00 0.00 86 1014.8
20260905075727 26 360 6.4 16.1 0.00 0.00 0.00 86 1014.8
20260905075626 26 360 3.2 14.5 0.00 0.00 0.00 85 1014.8
20260905075527 26 360 3.2 14.5 0.00 0.00 0.00 85 1014.7
20260905075432 26 360 4.8 14.5 0.00 0.00 0.00 85 1014.8
20260905075332 26 360 6.4 14.5 0.00 0.00 0.00 85 1014.8
20260905075233 26 360 4.8 14.5 0.00 0.00 0.00 85 1014.8
20260905075132 26 360 4.8 14.5 0.00 0.00 0.00 85 1014.8
20260905075052 26 360 4.8 14.5 0.00 0.00 0.00 85 1014.8
20260905074932 26 360 8.0 14.5 0.00 0.00 0.00 85 1014.9
20260905074833 26 360 8.0 14.5 0.00 0.00 0.00 85 1014.8
20260905074754 26 360 8.0 14.5 0.00 0.00 0.00 85 1014.9
20260905074617 26 360 8.0 14.5 0.00 0.00 0.00 85 1014.8
20260905074517 26 360 8.0 14.5 0.00 0.00 0.00 85 1014.9
20260905074417 26 360 6.4 14.5 0.00 0.00 0.00 85 1015.0
20260905074338 26 360 6.4 17.7 0.00 0.00 0.00 85 1014.9
20260905074216 26 360 6.4 17.7 0.00 0.00 0.00 85 1014.9
20260905074118 26 360 6.4 17.7 0.00 0.00 0.00 85 1015.0
20260905074016 26 360 6.4 17.7 0.00 0.00 0.00 85 1015.0
20260905073916 26 177 6.4 17.7 0.00 0.00 0.00 85 1014.9
20260905073821 26 360 8.0 17.7 0.00 0.00 0.00 85 1014.8
20260905073723 26 360 8.0 17.7 0.00 0.00 0.00 85 1014.9
20260905073624 26 170 9.7 17.7 0.00 0.00 0.00 85 1014.9
20260905073523 26 360 8.0 17.7 0.00 0.00 0.00 85 1014.9
20260905073424 26 360 6.4 14.5 0.00 0.00 0.00 84 1014.9
20260905073325 26 360 4.8 14.5 0.00 0.00 0.00 84 1014.9
20260905073226 26 360 4.8 14.5 0.00 0.00 0.00 84 1014.8
20260905073151 26 360 4.8 14.5 0.00 0.00 0.00 84 1014.8
20260905073050 26 360 8.0 14.5 0.00 0.00 0.00 84 1014.8
20260905072930 26 360 8.0 14.5 0.00 0.00 0.00 84 1014.9
20260905072832 26 360 6.4 14.5 0.00 0.00 0.00 84 1014.8
20260905072732 26 360 6.4 12.9 0.00 0.00 0.00 84 1015.0
20260905072632 26 360 8.0 12.9 0.00 0.00 0.00 84 1014.9
20260905072533 26 360 8.0 12.9 0.00 0.00 0.00 84 1014.9
20260905072418 26 360 9.7 14.5 0.00 0.00 0.00 84 1015.0
20260905072319 26 360 8.0 14.5 0.00 0.00 0.00 84 1015.0
20260905072220 26 360 8.0 14.5 0.00 0.00 0.00 84 1015.0
20260905072141 26 360 8.0 14.5 0.00 0.00 0.00 84 1015.1
20260905072040 26 360 9.7 14.5 0.00 0.00 0.00 84 1015.0
20260905071941 26 360 9.7 14.5 0.00 0.00 0.00 84 1015.0
20260905071821 26 360 8.0 14.5 0.00 0.00 0.00 84 1015.0
20260905071721 26 360 8.0 12.9 0.00 0.00 0.00 84 1015.0
20260905071627 26 360 6.4 12.9 0.00 0.00 0.00 84 1015.1
20260905071528 26 360 6.4 9.7 0.00 0.00 0.00 84 1015.1
20260905071430 26 360 4.8 12.9 0.00 0.00 0.00 84 1015.1
20260905071331 26 360 6.4 12.9 0.00 0.00 0.00 84 1015.1
20260905071231 26 360 4.8 12.9 0.00 0.00 0.00 84 1015.1
20260905071132 26 360 6.4 12.9 0.00 0.00 0.00 84 1015.1
20260905071018 26 360 6.4 12.9 0.00 0.00 0.00 84 1015.1
20260905070919 26 360 4.8 12.9 0.00 0.00 0.00 84 1015.1
20260905070819 26 360 4.8 14.5 0.00 0.00 0.00 84 1015.1
20260905070720 26 360 6.4 14.5 0.00 0.00 0.00 84 1015.0
20260905070621 26 360 6.4 14.5 0.00 0.00 0.00 84 1015.1
20260905070521 26 360 6.4 14.5 0.00 0.00 0.00 84 1015.0
20260905070426 26 360 4.8 14.5 0.00 0.00 0.00 83 1015.0
20260905070327 26 360 4.8 16.1 0.00 0.00 0.00 83 1015.1
20260905070247 26 360 6.4 16.1 0.00 0.00 0.00 83 1015.0
20260905070126 26 360 6.4 16.1 0.00 0.00 0.00 83 1015.1
20260905070026 26 360 6.4 16.1 0.00 0.00 0.00 83 1015.0
20260905065927 26 360 6.4 16.1 0.00 0.00 0.00 83 1015.0
20260905065829 26 360 4.8 16.1 0.00 0.00 0.00 83 1015.1
20260905065732 26 360 3.2 16.1 0.00 0.00 0.00 83 1015.0
20260905065632 26 360 6.4 16.1 0.00 0.00 0.00 83 1015.0
20260905065533 26 360 6.4 16.1 0.00 0.00 0.00 83 1015.1
20260905065429 26 360 6.4 16.1 0.00 0.00 0.00 83 1015.0
20260905065330 26 360 6.4 12.9 0.00 0.00 0.00 83 1015.0
20260905065231 26 360 6.4 14.5 0.00 0.00 0.00 83 1015.2
20260905065117 26 360 6.4 14.5 0.00 0.00 0.00 83 1015.2
20260905065038 26 360 6.4 14.5 0.00 0.00 0.00 83 1015.1
20260905064918 26 360 6.4 14.5 0.00 0.00 0.00 83 1015.2
20260905064818 26 360 6.4 16.1 0.00 0.00 0.00 83 1015.1
20260905064719 26 360 8.0 16.1 0.00 0.00 0.00 83 1015.2
20260905064639 26 360 8.0 16.1 0.00 0.00 0.00 83 1015.1
20260905064600 26 360 8.0 19.3 0.00 0.00 0.00 83 1015.1
20260905064419 26 360 8.0 19.3 0.00 0.00 0.00 83 1015.1
20260905064323 26 360 8.0 19.3 0.00 0.00 0.00 83 1015.1
20260905064223 26 360 8.0 19.3 0.00 0.00 0.00 83 1015.1
20260905064123 26 360 8.0 19.3 0.00 0.00 0.00 82 1015.1
20260905064024 26 360 9.7 19.3 0.00 0.00 0.00 82 1015.1
20260905063945 26 360 9.7 19.3 0.00 0.00 0.00 82 1015.1
20260905063824 26 360 9.7 19.3 0.00 0.00 0.00 82 1015.1
20260905063725 26 360 11.3 19.3 0.00 0.00 0.00 82 1015.1
20260905063630 26 360 11.3 19.3 0.00 0.00 0.00 82 1015.1
20260905063531 26 360 9.7 17.7 0.00 0.00 0.00 82 1015.1
20260905063450 26 360 9.7 17.7 0.00 0.00 0.00 82 1015.1
20260905063329 26 360 8.0 17.7 0.00 0.00 0.00 82 1015.0
20260905063230 26 360 9.7 17.7 0.00 0.00 0.00 82 1015.0
20260905063150 26 360 11.3 17.7 0.00 0.00 0.00 82 1015.1
20260905063029 26 360 11.3 17.7 0.00 0.00 0.00 82 1015.0
20260905062929 26 360 9.7 17.7 0.00 0.00 0.00 82 1015.1
20260905062835 26 360 9.7 17.7 0.00 0.00 0.00 82 1015.1
20260905062755 26 360 8.0 17.7 0.00 0.00 0.00 82 1015.1
20260905062635 26 360 8.0 19.3 0.00 0.00 0.00 82 1015.1
20260905062516 26 360 8.0 19.3 0.00 0.00 0.00 82 1015.1
20260905062438 26 360 9.7 19.3 0.00 0.00 0.00 82 1015.1
20260905062317 26 360 9.7 19.3 0.00 0.00 0.00 82 1015.1
20260905062217 26 360 11.3 19.3 0.00 0.00 0.00 82 1015.0
20260905062120 26 360 11.3 19.3 0.00 0.00 0.00 82 1015.1
20260905062021 26 360 9.7 19.3 0.00 0.00 0.00 82 1015.1
20260905061921 26 360 9.7 19.3 0.00 0.00 0.00 82 1015.1
20260905061821 26 360 8.0 14.5 0.00 0.00 0.00 82 1015.1
20260905061721 26 360 8.0 16.1 0.00 0.00 0.00 82 1015.1
20260905061622 26 360 9.7 16.1 0.00 0.00 0.00 82 1015.1
20260905061543 26 360 9.7 16.1 0.00 0.00 0.00 82 1015.2
20260905061442 26 360 8.0 16.1 0.00 0.00 0.00 82 1015.1
20260905061326 26 360 8.0 16.1 0.00 0.00 0.00 81 1015.2
20260905061226 26 360 8.0 16.1 0.00 0.00 0.00 81 1015.2
20260905061126 26 360 9.7 17.7 0.00 0.00 0.00 81 1015.1
20260905061027 26 360 8.0 17.7 0.00 0.00 0.00 81 1015.2
20260905060949 26 360 9.7 17.7 0.00 0.00 0.00 81 1015.1
20260905060828 26 360 8.0 17.7 0.00 0.00 0.00 81 1015.2
20260905060730 26 360 8.0 17.7 0.00 0.00 0.00 81 1015.1
20260905060635 26 360 8.0 19.3 0.00 0.00 0.00 81 1015.1
20260905060534 26 360 9.7 19.3 0.00 0.00 0.00 81 1015.1
20260905060455 26 360 9.7 19.3 0.00 0.00 0.00 81 1015.1
20260905060334 26 360 11.3 19.3 0.00 0.00 0.00 81 1015.1
20260905060235 26 360 9.7 19.3 0.00 0.00 0.00 81 1015.0
20260905060136 26 360 9.7 19.3 0.00 0.00 0.00 81 1015.1
20260905060055 26 360 9.7 19.3 0.00 0.00 0.00 81 1015.1
20260905055920 26 360 11.3 19.3 0.00 0.00 0.00 81 1015.1
20260905055841 26 360 11.3 19.3 0.00 0.00 0.00 81 1015.1
20260905055720 26 360 9.7 17.7 0.00 0.00 0.00 81 1015.1
20260905055620 26 360 9.7 17.7 0.00 0.00 0.00 81 1015.1
20260905055520 26 360 11.3 17.7 0.00 0.00 0.00 81 1015.1
20260905055421 26 360 11.3 17.7 0.00 0.00 0.00 81 1015.1
20260905055322 26 360 9.7 17.7 0.00 0.00 0.00 81 1015.1
20260905055242 26 360 9.7 17.7 0.00 0.00 0.00 81 1015.1
20260905055126 26 360 9.7 17.7 0.00 0.00 0.00 81 1015.1
20260905055028 26 360 11.3 17.7 0.00 0.00 0.00 81 1015.2
20260905054930 26 360 11.3 17.7 0.00 0.00 0.00 81 1015.2
20260905054830 26 360 11.3 17.7 0.00 0.00 0.00 81 1015.1
20260905054731 26 360 12.9 17.7 0.00 0.00 0.00 81 1015.1
20260905054651 26 360 11.3 17.7 0.00 0.00 0.00 81 1015.1
20260905054530 26 360 9.7 16.1 0.00 0.00 0.00 81 1015.2
20260905054451 26 360 9.7 16.1 0.00 0.00 0.00 80 1015.1
20260905054355 26 360 11.3 16.1 0.00 0.00 0.00 80 1015.1
20260905054233 26 360 11.3 16.1 0.00 0.00 0.00 80 1015.1
20260905054134 26 360 9.7 19.3 0.00 0.00 0.00 80 1015.1
20260905054015 26 360 8.0 19.3 0.00 0.00 0.00 80 1015.2
20260905053916 26 360 9.7 19.3 0.00 0.00 0.00 80 1015.1
20260905053816 26 360 9.7 19.3 0.00 0.00 0.00 80 1015.1
20260905053721 27 360 9.7 19.3 0.00 0.00 0.00 80 1015.1
20260905053622 27 360 11.3 19.3 0.00 0.00 0.00 80 1015.1
20260905053523 27 360 11.3 19.3 0.00 0.00 0.00 80 1015.1
20260905053423 27 360 12.9 19.3 0.00 0.00 0.00 80 1015.1
20260905053343 27 360 12.9 19.3 0.00 0.00 0.00 80 1015.0
20260905053223 27 360 12.9 19.3 0.00 0.00 0.00 80 1015.0
20260905053124 27 360 12.9 19.3 0.00 0.00 0.00 80 1015.1
20260905053029 27 360 12.9 17.7 0.00 0.00 0.00 80 1015.1
20260905052930 27 360 12.9 17.7 0.00 0.00 0.00 80 1015.1
20260905052832 27 360 11.3 17.7 0.00 0.00 0.00 80 1015.1
20260905052731 27 360 9.7 17.7 0.00 0.00 0.00 79 1015.1
20260905052632 27 360 9.7 17.7 0.00 0.00 0.00 79 1015.1
20260905052533 27 360 11.3 20.9 0.00 0.00 0.00 79 1015.1
20260905052419 27 360 11.3 20.9 0.00 0.00 0.00 79 1015.1
20260905052318 27 360 9.7 20.9 0.00 0.00 0.00 79 1015.2
20260905052219 27 360 11.3 20.9 0.00 0.00 0.00 79 1015.2
20260905052120 27 360 11.3 20.9 0.00 0.00 0.00 79 1015.2
20260905052020 27 360 11.3 20.9 0.00 0.00 0.00 79 1015.2
20260905051920 27 360 11.3 20.9 0.00 0.00 0.00 79 1015.2
20260905051841 27 360 11.3 20.9 0.00 0.00 0.00 79 1015.2
20260905051724 27 360 11.3 20.9 0.00 0.00 0.00 79 1015.2
20260905051645 27 360 11.3 19.3 0.00 0.00 0.00 79 1015.3
20260905051524 27 360 9.7 16.1 0.00 0.00 0.00 79 1015.3
20260905051425 27 360 9.7 16.1 0.00 0.00 0.00 79 1015.2
20260905051326 27 360 8.0 16.1 0.00 0.00 0.00 79 1015.3
20260905051226 27 360 8.0 16.1 0.00 0.00 0.00 79 1015.3
20260905051127 27 360 8.0 19.3 0.00 0.00 0.00 79 1015.3
20260905051026 27 360 9.7 19.3 0.00 0.00 0.00 79 1015.3
20260905050930 27 360 9.7 19.3 0.00 0.00 0.00 79 1015.3
20260905050830 27 360 9.7 19.3 0.00 0.00 0.00 79 1015.3
20260905050730 27 360 8.0 19.3 0.00 0.00 0.00 78 1015.2
20260905050651 27 360 9.7 19.3 0.00 0.00 0.00 78 1015.2
20260905050530 27 360 9.7 19.3 0.00 0.00 0.00 78 1015.3
20260905050431 27 360 11.3 19.3 0.00 0.00 0.00 78 1015.2
20260905050330 27 360 11.3 19.3 0.00 0.00 0.00 78 1015.2
20260905050231 27 360 11.3 20.9 0.00 0.00 0.00 78 1015.2
20260905050115 27 360 9.7 20.9 0.00 0.00 0.00 78 1015.2
20260905050036 27 360 9.7 20.9 0.00 0.00 0.00 78 1015.2
20260905045930 27 360 8.0 20.9 0.00 0.00 0.00 78 1015.3
20260905045832 27 360 9.7 20.9 0.00 0.00 0.00 78 1015.2
20260905045751 27 360 11.3 20.9 0.00 0.00 0.00 78 1015.3
20260905045630 27 360 12.9 20.9 0.00 0.00 0.00 78 1015.3
20260905045531 27 360 12.9 20.9 0.00 0.00 0.00 78 1015.3
20260905045435 27 360 12.9 20.9 0.00 0.00 0.00 78 1015.2
20260905045316 27 360 9.7 20.9 0.00 0.00 0.00 78 1015.2
20260905045217 27 360 8.0 20.9 0.00 0.00 0.00 78 1015.2
20260905045117 27 360 8.0 20.9 0.00 0.00 0.00 77 1015.1
20260905045018 27 360 6.4 17.7 0.00 0.00 0.00 77 1015.1
20260905044939 27 360 8.0 20.9 0.00 0.00 0.00 77 1015.1
20260905044823 27 360 8.0 20.9 0.00 0.00 0.00 77 1015.2
20260905044723 27 360 9.7 20.9 0.00 0.00 0.00 77 1015.1
20260905044623 27 360 11.3 20.9 0.00 0.00 0.00 77 1015.1
20260905044545 27 360 12.9 20.9 0.00 0.00 0.00 77 1015.1
20260905044424 27 360 12.9 20.9 0.00 0.00 0.00 77 1015.1
20260905044325 27 360 12.9 20.9 0.00 0.00 0.00 77 1015.1
20260905044226 27 360 12.9 20.9 0.00 0.00 0.00 77 1015.1
20260905044146 27 360 12.9 24.1 0.00 0.00 0.00 77 1015.1
20260905044030 27 360 12.9 24.1 0.00 0.00 0.00 76 1015.1
20260905043930 27 360 11.3 29.0 0.00 0.00 0.00 76 1015.0
20260905043832 27 360 12.9 29.0 0.00 0.00 0.00 76 1015.1
20260905043732 27 360 12.9 29.0 0.00 0.00 0.00 76 1015.1
20260905043632 27 360 14.5 29.0 0.00 0.00 0.00 76 1015.1
20260905043532 27 360 11.3 29.0 0.00 0.00 0.00 76 1015.1
20260905043454 27 360 11.3 29.0 0.00 0.00 0.00 76 1015.2
20260905043317 27 360 16.1 29.0 0.00 0.00 0.00 76 1015.2
20260905043218 27 360 16.1 29.0 0.00 0.00 0.00 76 1015.1
20260905043119 27 360 16.1 29.0 0.00 0.00 0.00 76 1015.2
20260905043018 27 360 12.9 25.7 0.00 0.00 0.00 76 1015.2
20260905042920 27 360 11.3 17.7 0.00 0.00 0.00 76 1015.2
20260905042823 27 360 11.3 17.7 0.00 0.00 0.00 76 1015.2
20260905042722 27 360 11.3 20.9 0.00 0.00 0.00 76 1015.2
20260905042627 27 360 11.3 20.9 0.00 0.00 0.00 76 1015.2
20260905042528 27 360 11.3 20.9 0.00 0.00 0.00 76 1015.1
20260905042429 27 360 12.9 20.9 0.00 0.00 0.00 76 1015.1
20260905042330 27 360 12.9 20.9 0.00 0.00 0.00 76 1015.1
20260905042230 27 360 11.3 20.9 0.00 0.00 0.00 76 1015.1
20260905042150 27 360 12.9 22.5 0.00 0.00 0.00 76 1015.1
20260905042029 27 360 12.9 22.5 0.00 0.00 0.00 75 1015.0
20260905041934 27 360 12.9 22.5 0.00 0.00 0.00 75 1015.0
20260905041833 27 360 9.7 27.4 0.00 0.00 0.00 75 1015.0
20260905041734 27 360 8.0 27.4 0.00 0.00 0.00 76 1015.0
20260905041634 27 360 9.7 27.4 0.00 0.00 0.00 76 1015.1
20260905041535 27 360 12.9 27.4 0.00 0.00 0.00 75 1015.0
20260905041435 27 360 14.5 27.4 0.00 0.00 0.00 75 1015.0
20260905041320 27 360 16.1 27.4 0.00 0.00 0.00 75 1015.0
20260905041221 27 360 14.5 27.4 0.00 0.00 0.00 75 1015.1
20260905041123 27 360 12.9 27.4 0.00 0.00 0.00 75 1015.0
20260905041024 27 360 12.9 27.4 0.00 0.00 0.00 75 1015.1
20260905040924 27 360 11.3 22.5 0.00 0.00 0.00 75 1015.1
20260905040825 27 360 14.5 22.5 0.00 0.00 0.00 75 1015.1
20260905040725 27 360 14.5 27.4 0.00 0.00 0.00 75 1015.1
20260905040628 27 360 12.9 27.4 0.00 0.00 0.00 75 1015.1
20260905040529 27 360 12.9 27.4 0.00 0.00 0.00 75 1015.1
20260905040430 27 360 11.3 27.4 0.00 0.00 0.00 75 1015.1
20260905040330 27 360 11.3 27.4 0.00 0.00 0.00 75 1015.1
20260905040232 27 360 14.5 27.4 0.00 0.00 0.00 75 1015.1
20260905040131 27 360 14.5 27.4 0.00 0.00 0.00 75 1015.2
20260905040016 27 360 14.5 27.4 0.00 0.00 0.00 75 1015.1
20260905035917 27 360 12.9 27.4 0.00 0.00 0.00 75 1015.2
20260905035817 27 360 11.3 27.4 0.00 0.00 0.00 75 1015.1
20260905035738 27 360 11.3 27.4 0.00 0.00 0.00 74 1015.2
20260905035616 27 360 12.9 27.4 0.00 0.00 0.00 75 1015.1
20260905035518 28 360 14.5 27.4 0.00 0.00 0.00 74 1015.1
20260905035419 28 360 14.5 27.4 0.00 0.00 0.00 74 1015.1
20260905035340 28 360 14.5 27.4 0.00 0.00 0.00 74 1015.0
20260905035224 28 360 16.1 27.4 0.00 0.00 0.00 74 1015.0
20260905035124 28 360 14.5 27.4 0.00 0.00 0.00 74 1015.1
20260905035045 27 360 14.5 27.4 0.00 0.00 0.00 74 1015.0
20260905034924 28 360 12.9 19.3 0.00 0.00 0.00 74 1015.1
20260905034824 28 360 12.9 20.9 0.00 0.00 0.00 74 1015.1
20260905034725 28 360 12.9 20.9 0.00 0.00 0.00 74 1015.1
20260905034624 28 360 12.9 20.9 0.00 0.00 0.00 74 1015.1
20260905034529 28 360 11.3 20.9 0.00 0.00 0.00 74 1015.1
20260905034451 28 360 11.3 20.9 0.00 0.00 0.00 74 1015.1
20260905034331 28 360 12.9 20.9 0.00 0.00 0.00 74 1015.0
20260905034231 28 360 12.9 20.9 0.00 0.00 0.00 74 1015.0
20260905034131 28 360 14.5 20.9 0.00 0.00 0.00 74 1015.0
20260905034032 28 360 14.5 20.9 0.00 0.00 0.00 74 1015.0
20260905033933 28 360 12.9 20.9 0.00 0.00 0.00 74 1015.1
20260905033837 28 360 12.9 20.9 0.00 0.00 0.00 74 1015.1
20260905033717 28 360 12.9 20.9 0.00 0.00 0.00 73 1015.1
20260905033617 28 360 14.5 24.1 0.00 0.00 0.00 73 1015.1
20260905033538 28 360 14.5 24.1 0.00 0.00 0.00 73 1015.0
20260905033417 28 360 14.5 24.1 0.00 0.00 0.00 73 1015.0
20260905033318 28 360 14.5 24.1 0.00 0.00 0.00 73 1015.1
20260905033239 28 360 14.5 24.1 0.00 0.00 0.00 73 1015.0
20260905033119 28 360 12.9 24.1 0.00 0.00 0.00 73 1015.0
20260905033044 28 360 12.9 24.1 0.00 0.00 0.00 73 1015.0
20260905032924 28 360 12.9 24.1 0.00 0.00 0.00 73 1015.1
20260905032826 28 360 12.9 24.1 0.00 0.00 0.00 73 1015.0
20260905032726 28 360 12.9 24.1 0.00 0.00 0.00 73 1014.9
20260905032627 28 360 12.9 24.1 0.00 0.00 0.00 73 1014.9
20260905032549 28 360 14.5 24.1 0.00 0.00 0.00 73 1014.9
20260905032429 28 360 14.5 24.1 0.00 0.00 0.00 73 1015.0
20260905032333 28 360 14.5 24.1 0.00 0.00 0.00 73 1014.8
20260905032253 28 360 16.1 24.1 0.00 0.00 0.00 73 1015.0
20260905032133 28 161 16.1 24.1 0.00 0.00 0.00 73 1014.9
20260905032033 28 360 16.1 22.5 0.00 0.00 0.00 73 1014.9
20260905031933 28 360 14.5 22.5 0.00 0.00 0.00 73 1014.9
20260905031834 28 360 12.9 22.5 0.00 0.00 0.00 73 1014.8
20260905031735 28 360 11.3 22.5 0.00 0.00 0.00 72 1015.3
20260905031619 28 150 9.7 22.5 0.00 0.00 0.00 72 1015.0
20260905031519 28 360 11.3 22.5 0.00 0.00 0.00 72 1015.0
20260905031440 28 360 12.9 22.5 0.00 0.00 0.00 72 1015.0
20260905031320 28 360 14.5 22.5 0.00 0.00 0.00 72 1015.0
20260905031220 28 360 16.1 22.5 0.00 0.00 0.00 72 1014.9
20260905031121 28 360 14.5 22.5 0.00 0.00 0.00 72 1014.9
20260905031022 28 360 12.9 22.5 0.00 0.00 0.00 72 1014.9
20260905030925 28 360 12.9 22.5 0.00 0.00 0.00 72 1015.0
20260905030826 28 360 12.9 22.5 0.00 0.00 0.00 72 1015.0
20260905030727 28 360 12.9 22.5 0.00 0.00 0.00 72 1014.9
20260905030627 28 360 14.5 22.5 0.00 0.00 0.00 72 1014.9
20260905030528 28 360 16.1 22.5 0.00 0.00 0.00 72 1014.8
20260905030428 28 360 16.1 22.5 0.00 0.00 0.00 72 1014.9
20260905030332 28 360 12.9 22.5 0.00 0.00 0.00 72 1014.9
20260905030233 28 360 11.3 20.9 0.00 0.00 0.00 72 1014.8
20260905030133 28 360 9.7 20.9 0.00 0.00 0.00 71 1014.8
20260905030034 28 360 12.9 20.9 0.00 0.00 0.00 71 1014.9
20260905025934 28 360 12.9 20.9 0.00 0.00 0.00 71 1014.9
20260905025836 28 360 14.5 20.9 0.00 0.00 0.00 71 1014.9
20260905025720 28 360 14.5 20.9 0.00 0.00 0.00 71 1014.8
20260905025640 28 360 14.5 22.5 0.00 0.00 0.00 70 1014.8
20260905025520 28 360 14.5 22.5 0.00 0.00 0.00 70 1014.8
20260905025420 28 360 12.9 22.5 0.00 0.00 0.00 70 1014.7
20260905025320 28 360 14.5 22.5 0.00 0.00 0.00 70 1014.8
20260905025221 28 360 14.5 22.5 0.00 0.00 0.00 70 1014.7
20260905025121 28 360 14.5 22.5 0.00 0.00 0.00 70 1014.7
20260905025025 28 360 14.5 22.5 0.00 0.00 0.00 70 1014.7
20260905024926 28 360 14.5 22.5 0.00 0.00 0.00 70 1014.7
20260905024829 28 360 16.1 22.5 0.00 0.00 0.00 70 1014.7
20260905024728 28 360 14.5 19.3 0.00 0.00 0.00 70 1014.7
20260905024629 28 360 12.9 19.3 0.00 0.00 0.00 70 1014.7
20260905024528 28 360 11.3 19.3 0.00 0.00 0.00 70 1014.7
20260905024429 28 360 9.7 17.7 0.00 0.00 0.00 69 1014.7
20260905024334 28 360 11.3 17.7 0.00 0.00 0.00 69 1014.7
20260905024255 28 360 11.3 17.7 0.00 0.00 0.00 69 1014.6
20260905024135 28 360 9.7 14.5 0.00 0.00 0.00 69 1014.6
20260905024034 28 360 8.0 14.5 0.00 0.00 0.00 69 1014.5
20260905023934 28 360 6.4 9.7 0.00 0.00 0.00 69 1014.6
20260905023833 28 360 6.4 9.7 0.00 0.00 0.00 69 1014.6
20260905023735 28 360 4.8 9.7 0.00 0.00 0.00 69 1014.6
20260905023633 28 360 4.8 9.7 0.00 0.00 0.00 69 1014.7
20260905023518 28 360 4.8 9.7 0.00 0.00 0.00 69 1014.7
20260905023419 28 360 4.8 9.7 0.00 0.00 0.00 69 1014.6
20260905023319 28 360 4.8 9.7 0.00 0.00 0.00 69 1014.6
20260905023219 28 360 4.8 9.7 0.00 0.00 0.00 69 1014.7
20260905023118 28 360 4.8 9.7 0.00 0.00 0.00 69 1014.6
20260905023040 28 360 4.8 9.7 0.00 0.00 0.00 69 1014.6
20260905022939 28 360 4.8 9.7 0.00 0.00 0.00 69 1014.6
20260905022819 28 360 4.8 9.7 0.00 0.00 0.00 69 1014.6
20260905022723 28 360 4.8 8.0 0.00 0.00 0.00 69 1014.5
20260905022624 28 360 4.8 8.0 0.00 0.00 0.00 69 1014.5
20260905022524 28 360 4.8 9.7 0.00 0.00 0.00 69 1014.5
20260905022425 28 360 4.8 9.7 0.00 0.00 0.00 68 1014.5
20260905022345 28 360 4.8 9.7 0.00 0.00 0.00 68 1014.5
20260905022224 28 360 4.8 9.7 0.00 0.00 0.00 68 1014.4
20260905022126 28 360 4.8 9.7 0.00 0.00 0.00 68 1014.4
20260905022030 28 360 4.8 9.7 0.00 0.00 0.00 68 1014.4
20260905021930 28 360 4.8 9.7 0.00 0.00 0.00 68 1014.3
20260905021831 28 360 4.8 9.7 0.00 0.00 0.00 68 1014.3
20260905021732 28 360 4.8 9.7 0.00 0.00 0.00 68 1014.3
20260905021632 28 360 4.8 8.0 0.00 0.00 0.00 68 1014.3
20260905021552 28 360 4.8 9.7 0.00 0.00 0.00 68 1014.3
20260905021417 28 360 4.8 9.7 0.00 0.00 0.00 68 1014.3
20260905021318 28 360 4.8 9.7 0.00 0.00 0.00 68 1014.3
20260905021238 28 360 4.8 9.7 0.00 0.00 0.00 68 1014.3
20260905021118 28 360 6.4 9.7 0.00 0.00 0.00 68 1014.3
20260905021038 28 360 6.4 9.7 0.00 0.00 0.00 68 1014.2
20260905020918 28 161 6.4 14.5 0.00 0.00 0.00 68 1014.2
20260905020839 28 360 6.4 14.5 0.00 0.00 0.00 68 1014.2
20260905020719 28 360 6.4 14.5 0.00 0.00 0.00 68 1014.2
20260905020623 28 360 4.8 14.5 0.00 0.00 0.00 68 1014.1
20260905020523 28 360 4.8 14.5 0.00 0.00 0.00 67 1014.1
20260905020423 28 360 4.8 16.1 0.00 0.00 0.00 67 1014.0
20260905020323 28 360 6.4 16.1 0.00 0.00 0.00 67 1014.1
20260905020224 28 360 6.4 16.1 0.00 0.00 0.00 67 1014.0
20260905020125 28 360 6.4 16.1 0.00 0.00 0.00 67 1014.0
20260905020026 28 360 8.0 16.1 0.00 0.00 0.00 67 1014.0
20260905015927 28 360 8.0 16.1 0.00 0.00 0.00 67 1014.0
20260905015853 28 360 9.7 17.7 0.00 0.00 0.00 67 1014.0
20260905015732 28 360 9.7 17.7 0.00 0.00 0.00 67 1014.0
20260905015631 28 360 9.7 17.7 0.00 0.00 0.00 67 1014.0
20260905015532 28 360 8.0 19.3 0.00 0.00 0.00 67 1014.1
20260905015433 28 360 9.7 19.3 0.00 0.00 0.00 67 1014.2
20260905015333 28 360 9.7 19.3 0.00 0.00 0.00 66 1014.1
20260905015218 29 360 11.3 19.3 0.00 0.00 0.00 66 1014.1
20260905015119 29 360 11.3 19.3 0.00 0.00 0.00 66 1014.1
20260905015019 29 360 11.3 19.3 0.00 0.00 0.00 66 1014.1
20260905014921 29 360 11.3 19.3 0.00 0.00 0.00 66 1014.1
20260905014821 29 360 12.9 19.3 0.00 0.00 0.00 66 1014.2
20260905014721 29 360 12.9 19.3 0.00 0.00 0.00 66 1014.1
20260905014642 29 360 11.3 19.3 0.00 0.00 0.00 66 1014.1
20260905014542 29 360 9.7 19.3 0.00 0.00 0.00 66 1014.1
20260905014426 29 360 9.7 19.3 0.00 0.00 0.00 66 1014.0
20260905014327 29 360 11.3 19.3 0.00 0.00 0.00 66 1014.1
20260905014247 29 360 11.3 19.3 0.00 0.00 0.00 66 1014.0
20260905014147 29 360 9.7 17.7 0.00 0.00 0.00 66 1014.0
20260905014046 29 360 9.7 17.7 0.00 0.00 0.00 66 1014.0
20260905013925 29 360 9.7 17.7 0.00 0.00 0.00 66 1014.0
20260905013826 29 360 11.3 19.3 0.00 0.00 0.00 66 1014.0
20260905013727 29 360 12.9 19.3 0.00 0.00 0.00 66 1014.0
20260905013632 29 360 12.9 19.3 0.00 0.00 0.00 66 1013.9
20260905013533 29 360 12.9 20.9 0.00 0.00 0.00 66 1013.9
20260905013454 29 360 12.9 20.9 0.00 0.00 0.00 66 1014.0
20260905013335 29 360 12.9 20.9 0.00 0.00 0.00 66 1014.0
20260905013235 29 360 12.9 20.9 0.00 0.00 0.00 66 1013.9
20260905013156 29 360 14.5 22.5 0.00 0.00 0.00 66 1013.9
20260905013055 29 360 12.9 22.5 0.00 0.00 0.00 66 1013.9
20260905012920 29 360 12.9 22.5 0.00 0.00 0.00 66 1013.9
20260905012841 29 360 12.9 22.5 0.00 0.00 0.00 66 1013.9
20260905012719 29 360 14.5 22.5 0.00 0.00 0.00 66 1013.8
20260905012620 29 360 16.1 22.5 0.00 0.00 0.00 66 1013.9
20260905012520 29 360 14.5 22.5 0.00 0.00 0.00 66 1013.9
20260905012421 29 360 14.5 22.5 0.00 0.00 0.00 66 1013.9
20260905012322 29 360 12.9 22.5 0.00 0.00 0.00 66 1013.8
20260905012227 29 360 14.5 22.5 0.00 0.00 0.00 66 1013.9
20260905012127 29 360 14.5 22.5 0.00 0.00 0.00 66 1013.8
20260905012028 29 360 12.9 22.5 0.00 0.00 0.00 67 1013.9
20260905011928 29 360 12.9 22.5 0.00 0.00 0.00 67 1013.8
20260905011848 29 360 11.3 22.5 0.00 0.00 0.00 66 1013.9
20260905011728 30 360 14.5 22.5 0.00 0.00 0.00 66 1013.9
20260905011628 30 360 12.9 20.9 0.00 0.00 0.00 66 1013.9
20260905011549 30 360 12.9 20.9 0.00 0.00 0.00 66 1013.8
20260905011433 30 360 12.9 20.9 0.00 0.00 0.00 66 1013.8
20260905011354 30 360 12.9 20.9 0.00 0.00 0.00 66 1013.9
20260905011233 30 360 12.9 20.9 0.00 0.00 0.00 66 1013.8
20260905011153 30 360 14.5 20.9 0.00 0.00 0.00 66 1013.8
20260905011033 30 360 14.5 19.3 0.00 0.00 0.00 66 1013.8
20260905010933 30 360 12.9 17.7 0.00 0.00 0.00 66 1013.8
20260905010834 30 360 11.3 17.7 0.00 0.00 0.00 66 1013.8
20260905010718 30 360 9.7 17.7 0.00 0.00 0.00 66 1013.8
20260905010616 30 360 9.7 17.7 0.00 0.00 0.00 66 1013.8
20260905010536 30 360 9.7 17.7 0.00 0.00 0.00 65 1013.8
20260905010456 30 360 8.0 25.7 0.00 0.00 0.00 66 1013.8
20260905010356 30 360 8.0 25.7 0.00 0.00 0.00 65 1013.7
20260905010236 30 360 9.7 25.7 0.00 0.00 0.00 65 1013.8
20260905010156 30 360 11.3 25.7 0.00 0.00 0.00 65 1013.8
20260905010035 30 360 11.3 25.7 0.00 0.00 0.00 65 1013.7
20260905005920 30 360 12.9 25.7 0.00 0.00 0.00 65 1013.7
20260905005822 30 360 14.5 25.7 0.00 0.00 0.00 65 1013.8
20260905005721 30 360 16.1 25.7 0.00 0.00 0.00 65 1013.7
20260905005620 30 360 17.7 25.7 0.00 0.00 0.00 65 1013.8
20260905005521 30 360 16.1 24.1 0.00 0.00 0.00 65 1013.6
20260905005422 30 360 16.1 25.7 0.00 0.00 0.00 65 1013.7
20260905005321 30 360 14.5 27.4 0.00 0.00 0.00 64 1013.7
20260905005222 30 360 16.1 27.4 0.00 0.00 0.00 64 1013.7
20260905005126 30 360 16.1 27.4 0.00 0.00 0.00 64 1013.7
20260905005027 30 360 16.1 27.4 0.00 0.00 0.00 64 1013.7
20260905004926 30 360 12.9 27.4 0.00 0.00 0.00 64 1013.7
20260905004827 30 360 14.5 27.4 0.00 0.00 0.00 64 1013.7
20260905004727 30 360 16.1 27.4 0.00 0.00 0.00 64 1013.5
20260905004648 30 360 17.7 27.4 0.00 0.00 0.00 64 1013.6
20260905004527 30 360 16.1 27.4 0.00 0.00 0.00 64 1013.6
20260905004427 30 360 14.5 22.5 0.00 0.00 0.00 64 1013.6
20260905004332 30 360 14.5 22.5 0.00 0.00 0.00 63 1013.6
20260905004233 30 360 14.5 24.1 0.00 0.00 0.00 63 1013.5
20260905004133 30 360 14.5 24.1 0.00 0.00 0.00 64 1013.5
20260905004034 30 360 16.1 24.1 0.00 0.00 0.00 63 1013.4
20260905003934 30 360 16.1 30.6 0.00 0.00 0.00 63 1013.5
20260905003834 30 360 17.7 30.6 0.00 0.00 0.00 63 1013.4
20260905003719 31 154 16.1 30.6 0.00 0.00 0.00 63 1013.4
20260905003617 31 360 14.5 30.6 0.00 0.00 0.00 63 1013.4
20260905003517 31 360 14.5 30.6 0.00 0.00 0.00 62 1013.3
20260905003438 31 360 14.5 30.6 0.00 0.00 0.00 62 1013.3
20260905003318 31 360 14.5 30.6 0.00 0.00 0.00 62 1013.3
20260905003219 31 360 16.1 30.6 0.00 0.00 0.00 62 1013.4
20260905003120 31 360 17.7 30.6 0.00 0.00 0.00 62 1013.3
20260905003024 31 360 17.7 27.4 0.00 0.00 0.00 62 1013.3
20260905002924 31 360 19.3 27.4 0.00 0.00 0.00 62 1013.3
20260905002826 31 360 19.3 27.4 0.00 0.00 0.00 61 1013.3
20260905002726 31 360 14.5 27.4 0.00 0.00 0.00 61 1013.3
20260905002646 31 360 12.9 25.7 0.00 0.00 0.00 61 1013.3
20260905002526 31 360 16.1 25.7 0.00 0.00 0.00 61 1013.3
20260905002426 31 360 17.7 25.7 0.00 0.00 0.00 61 1013.3
20260905002330 31 360 19.3 25.7 0.00 0.00 0.00 61 1013.4
20260905002231 31 360 19.3 25.7 0.00 0.00 0.00 60 1013.3
20260905002132 31 360 19.3 25.7 0.00 0.00 0.00 60 1013.3
20260905002033 31 360 17.7 25.7 0.00 0.00 0.00 60 1013.3
20260905001935 31 360 16.1 25.7 0.00 0.00 0.00 60 1013.3
20260905001835 31 360 16.1 25.7 0.00 0.00 0.00 60 1013.3
20260905001720 31 360 16.1 27.4 0.00 0.00 0.00 60 1013.3
20260905001620 31 150 12.9 27.4 0.00 0.00 0.00 60 1013.2
20260905001541 31 360 12.9 27.4 0.00 0.00 0.00 60 1013.2
20260905001420 31 360 14.5 27.4 0.00 0.00 0.00 60 1013.1
20260905001321 31 360 17.7 27.4 0.00 0.00 0.00 60 1013.1
20260905001221 31 360 17.7 27.4 0.00 0.00 0.00 59 1013.2
20260905001121 31 360 17.7 27.4 0.00 0.00 0.00 59 1013.2
20260905001025 31 143 14.5 27.4 0.00 0.00 0.00 59 1013.1
20260905000926 31 360 14.5 24.1 0.00 0.00 0.00 59 1013.1
20260905000827 31 360 12.9 20.9 0.00 0.00 0.00 59 1013.0
20260905000727 31 360 12.9 29.0 0.00 0.00 0.00 59 1013.1
20260905000626 31 360 12.9 29.0 0.00 0.00 0.00 59 1013.1
20260905000527 31 360 11.3 29.0 0.00 0.00 0.00 59 1013.0
20260905000428 31 360 9.7 29.0 0.00 0.00 0.00 59 1013.1
20260905000333 31 360 11.3 29.0 0.00 0.00 0.00 59 1013.0
20260905000233 31 360 12.9 29.0 0.00 0.00 0.00 59 1013.1
20260905000134 31 360 17.7 29.0 0.00 0.00 0.00 58 1013.0
20260905000035 31 360 17.7 29.0 0.00 0.00 0.00 58 1013.0
20260904235935 31 360 17.7 29.0 0.00 0.00 0.00 58 1013.0
20260904235836 32 360 16.1 27.4 0.00 0.00 0.00 58 1013.0
20260904235720 32 360 11.3 29.0 0.00 0.00 0.00 57 1013.0
20260904235641 32 360 8.0 29.0 0.00 0.00 0.00 56 1013.0
20260904235520 32 138 11.3 29.0 0.00 0.00 0.00 56 1012.9
20260904235421 32 360 12.9 29.0 0.00 0.00 0.00 53 1013.0
20260904235321 32 360 14.5 29.0 0.00 0.00 0.00 53 1012.9
20260904235221 32 360 16.1 29.0 0.00 0.00 0.00 53 1012.9
20260904235122 32 360 12.9 29.0 0.00 0.00 0.00 52 1012.9
20260904235022 32 360 12.9 29.0 0.00 0.00 0.00 52 1012.9
20260904234927 32 360 12.9 29.0 0.00 0.00 0.00 52 1012.9
20260904234828 32 360 16.1 29.0 0.00 0.00 0.00 52 1012.9
20260904234727 32 360 19.3 29.0 0.00 0.00 0.00 51 1012.9
20260904234628 32 360 17.7 25.7 0.00 0.00 0.00 51 1012.9
20260904234528 32 360 16.1 24.1 0.00 0.00 0.00 51 1012.9
20260904234430 32 360 14.5 24.1 0.00 0.00 0.00 51 1012.9
20260904234331 32 360 14.5 24.1 0.00 0.00 0.00 51 1012.9
20260904234216 32 360 14.5 24.1 0.00 0.00 0.00 50 1012.9
20260904234116 32 360 16.1 24.1 0.00 0.00 0.00 50 1013.0
20260904234018 32 360 16.1 24.1 0.00 0.00 0.00 50 1012.9
20260904233917 32 360 16.1 24.1 0.00 0.00 0.00 49 1013.0
20260904233818 32 360 16.1 24.1 0.00 0.00 0.00 49 1012.9
20260904233718 32 360 16.1 24.1 0.00 0.00 0.00 49 1012.9
20260904233623 32 360 14.5 24.1 0.00 0.00 0.00 49 1013.0
20260904233524 32 360 14.5 24.1 0.00 0.00 0.00 48 1012.9
20260904233425 32 143 12.9 19.3 0.00 0.00 0.00 48 1012.9
20260904233325 32 360 12.9 20.9 0.00 0.00 0.00 48 1012.9
20260904233225 32 360 11.3 20.9 0.00 0.00 0.00 48 1012.8
20260904233126 32 360 11.3 20.9 0.00 0.00 0.00 47 1012.8
20260904233026 32 360 12.9 20.9 0.00 0.00 0.00 48 1012.8
20260904232931 32 360 14.5 20.9 0.00 0.00 0.00 47 1012.9
20260904232832 32 360 11.3 20.9 0.00 0.00 0.00 47 1012.9
20260904232732 32 360 11.3 20.9 0.00 0.00 0.00 48 1012.9
20260904232631 32 360 12.9 20.9 0.00 0.00 0.00 48 1012.9
20260904232531 32 360 14.5 20.9 0.00 0.00 0.00 47 1012.8
20260904232432 32 360 14.5 20.9 0.00 0.00 0.00 47 1012.8
20260904232317 32 360 14.5 22.5 0.00 0.00 0.00 47 1012.8
20260904232216 32 360 11.3 22.5 0.00 0.00 0.00 47 1012.8
20260904232138 32 360 11.3 22.5 0.00 0.00 0.00 47 1012.9
20260904232017 32 360 11.3 22.5 0.00 0.00 0.00 47 1012.9
20260904231917 32 360 11.3 24.1 0.00 0.00 0.00 47 1012.9
20260904231837 32 360 9.7 24.1 0.00 0.00 0.00 46 1012.9
20260904231716 32 360 9.7 24.1 0.00 0.00 0.00 46 1012.9
20260904231618 32 360 11.3 24.1 0.00 0.00 0.00 46 1012.9
20260904231523 32 360 14.5 24.1 0.00 0.00 0.00 46 1012.9
20260904231424 32 360 14.5 24.1 0.00 0.00 0.00 46 1013.0
20260904231324 32 360 16.1 24.1 0.00 0.00 0.00 46 1013.0
20260904231225 32 360 14.5 24.1 0.00 0.00 0.00 45 1013.0
20260904231126 32 360 14.5 24.1 0.00 0.00 0.00 45 1012.9
20260904231025 32 360 14.5 22.5 0.00 0.00 0.00 45 1013.0
20260904230926 32 360 16.1 22.5 0.00 0.00 0.00 45 1013.0
20260904230830 32 360 14.5 22.5 0.00 0.00 0.00 44 1013.0
20260904230731 32 360 12.9 22.5 0.00 0.00 0.00 45 1013.0
20260904230652 32 360 9.7 22.5 0.00 0.00 0.00 46 1013.1
20260904230532 32 360 6.4 22.5 0.00 0.00 0.00 46 1013.0
20260904230431 32 360 4.8 19.3 0.00 0.00 0.00 46 1013.0
20260904230332 32 360 4.8 19.3 0.00 0.00 0.00 47 1013.0
20260904230233 32 360 4.8 19.3 0.00 0.00 0.00 48 1013.0
20260904230117 32 360 6.4 19.3 0.00 0.00 0.00 47 1013.1
20260904230018 32 360 8.0 19.3 0.00 0.00 0.00 47 1013.1
20260904225919 32 360 11.3 19.3 0.00 0.00 0.00 47 1013.1
20260904225820 32 360 14.5 19.3 0.00 0.00 0.00 47 1013.1
20260904225719 32 360 12.9 25.7 0.00 0.10 0.00 47 1013.1
20260904225619 32 360 12.9 29.0 0.00 0.10 0.00 47 1013.2
20260904225540 32 360 11.3 29.0 0.00 0.10 0.00 47 1013.2
20260904225419 32 360 12.9 29.0 0.00 0.10 0.00 47 1013.1
20260904225324 32 360 12.9 29.0 0.00 0.10 0.00 47 1013.2
20260904225225 32 360 14.5 29.0 0.00 0.10 0.00 47 1013.2
20260904225125 32 360 12.9 29.0 0.00 0.10 0.00 47 1013.2
20260904225026 32 360 16.1 29.0 0.00 0.10 0.00 46 1013.3
20260904224926 32 360 16.1 29.0 0.00 0.10 0.00 46 1013.2
20260904224827 32 360 16.1 29.0 0.00 0.10 0.00 47 1013.2
20260904224747 33 360 16.1 24.1 0.00 0.10 0.00 47 1013.2
20260904224626 33 360 16.1 24.1 0.00 0.10 0.00 47 1013.2
20260904224530 33 360 14.5 24.1 0.00 0.10 0.00 47 1013.2
20260904224430 33 360 11.3 24.1 0.00 0.10 0.00 47 1013.2
20260904224330 33 360 9.7 25.7 0.00 0.10 0.00 47 1013.1
20260904224231 33 360 9.7 25.7 0.00 0.10 0.00 48 1013.2
20260904224131 33 360 12.9 25.7 0.00 0.10 0.00 48 1013.2
20260904224032 33 360 14.5 25.7 0.00 0.10 0.00 48 1013.2
20260904223916 33 360 16.1 25.7 0.00 0.10 0.00 49 1013.3
20260904223816 33 360 16.1 25.7 0.00 0.10 0.00 48 1013.2
20260904223717 33 360 16.1 25.7 0.00 0.10 0.00 48 1013.2
20260904223637 33 360 14.5 25.7 0.00 0.10 0.00 48 1013.3
20260904223517 33 360 12.9 25.7 0.00 0.10 0.00 50 1013.3
20260904223417 33 360 11.3 27.4 0.00 0.10 0.00 50 1013.2
20260904223318 33 360 11.3 27.4 0.00 0.10 0.00 50 1013.2
20260904223222 32 360 11.3 27.4 0.00 0.10 0.00 51 1013.3
20260904223123 32 360 12.9 27.4 0.00 0.10 0.00 50 1013.3
20260904223024 32 360 16.1 27.4 0.00 0.10 0.00 50 1013.3
20260904222924 32 360 16.1 27.4 0.00 0.10 0.00 50 1013.3
20260904222826 32 360 14.5 27.4 0.00 0.10 0.00 50 1013.3
20260904222726 32 360 16.1 27.4 0.00 0.10 0.00 49 1013.3
20260904222631 32 360 16.1 27.4 0.00 0.10 0.00 49 1013.3
20260904222551 32 360 17.7 29.0 0.00 0.10 0.00 50 1013.3
20260904222430 32 360 17.7 32.2 0.00 0.10 0.00 49 1013.3
20260904222331 32 360 17.7 32.2 0.00 0.10 0.00 49 1013.3
20260904222231 32 360 17.7 32.2 0.00 0.10 0.00 49 1013.2
20260904222132 33 360 17.7 32.2 0.00 0.10 0.00 50 1013.3
20260904222033 33 360 17.7 32.2 0.00 0.10 0.00 51 1013.3
20260904221938 33 360 16.1 32.2 0.00 0.10 0.00 51 1013.4
20260904221817 32 360 16.1 32.2 0.00 0.10 0.00 52 1013.3
20260904221718 32 360 16.1 32.2 0.00 0.10 0.00 51 1013.3
20260904221620 33 360 16.1 32.2 0.00 0.10 0.00 52 1013.3
20260904221520 33 360 11.3 29.0 0.00 0.10 0.00 53 1013.3
20260904221420 33 360 9.7 29.0 0.00 0.10 0.00 53 1013.3
20260904221321 33 360 11.3 29.0 0.00 0.10 0.00 53 1013.3
20260904221225 33 360 14.5 29.0 0.00 0.10 0.00 52 1013.3
20260904221125 33 360 16.1 29.0 0.00 0.10 0.00 52 1013.2
20260904221027 33 360 14.5 29.0 0.00 0.10 0.00 51 1013.3
20260904220926 33 360 8.0 29.0 0.00 0.10 0.00 51 1013.2
20260904220827 33 360 6.4 19.3 0.00 0.10 0.00 51 1013.3
20260904220727 33 360 6.4 19.3 0.00 0.10 0.00 51 1013.3
20260904220626 33 360 11.3 19.3 0.00 0.10 0.00 51 1013.2
20260904220530 33 360 9.7 19.3 0.00 0.10 0.00 52 1013.3
20260904220430 33 360 8.0 19.3 0.00 0.10 0.00 53 1013.3
20260904220331 32 360 8.0 19.3 0.00 0.10 0.00 53 1013.3
20260904220232 33 360 9.7 20.9 0.00 0.10 0.00 53 1013.4
20260904220131 32 360 9.7 20.9 0.00 0.10 0.00 52 1013.4
20260904220032 32 360 9.7 20.9 0.00 0.10 0.00 52 1013.4
20260904215916 32 360 9.7 20.9 0.00 0.10 0.00 52 1013.4
20260904215818 32 360 11.3 22.5 0.00 0.10 0.00 52 1013.3
20260904215718 32 360 11.3 22.5 0.00 0.10 0.00 52 1013.4
20260904215618 32 360 9.7 22.5 0.00 0.10 0.00 52 1013.4
20260904215518 32 360 11.3 22.5 0.00 0.10 0.00 52 1013.5
20260904215438 32 360 9.7 22.5 0.00 0.10 0.00 52 1013.4
20260904215337 32 360 6.4 22.5 0.00 0.10 0.00 52 1013.4
20260904215216 32 360 9.7 22.5 0.00 0.10 0.00 52 1013.4
20260904215121 32 360 11.3 22.5 0.00 0.10 0.00 50 1013.5
20260904215022 32 360 12.9 20.9 0.00 0.10 0.00 50 1013.4
20260904214922 32 360 11.3 20.9 0.00 0.10 0.00 53 1013.5
20260904214843 32 360 11.3 20.9 0.00 0.10 0.00 53 1013.5
20260904214716 32 360 8.0 25.7 0.00 0.10 0.00 53 1013.5
20260904214618 32 360 8.0 25.7 0.00 0.10 0.00 55 1013.4
20260904214519 32 360 11.3 25.7 0.00 0.10 0.00 56 1013.4
20260904214422 32 360 12.9 25.7 0.00 0.10 0.00 56 1013.5
20260904214323 32 360 14.5 25.7 0.00 0.10 0.00 56 1013.6
20260904214224 32 360 12.9 25.7 0.00 0.10 0.00 55 1013.6
20260904214124 32 360 16.1 25.7 0.00 0.10 0.00 55 1013.6
20260904214025 32 360 17.7 25.7 0.00 0.10 0.00 54 1013.6
20260904213946 32 360 17.7 24.1 0.00 0.10 0.00 55 1013.7
20260904213825 32 360 12.9 22.5 0.00 0.10 0.00 56 1013.7
20260904213729 32 360 8.0 25.7 0.00 0.10 0.00 57 1013.6
20260904213630 32 360 8.0 25.7 0.00 0.10 0.00 57 1013.6
20260904213532 32 360 11.3 25.7 0.00 0.10 0.00 57 1013.7
20260904213452 32 360 12.9 25.7 0.00 0.10 0.00 56 1013.7
20260904213332 32 360 12.9 25.7 0.00 0.10 0.00 56 1013.7
20260904213233 32 360 14.5 25.7 0.00 0.10 0.00 54 1013.8
20260904213116 32 360 17.7 25.7 0.00 0.10 0.00 54 1013.7
20260904213037 32 360 17.7 25.7 0.00 0.10 0.00 56 1013.8
20260904212917 32 360 17.7 25.7 0.00 0.10 0.00 54 1013.8
20260904212839 32 360 16.1 30.6 0.00 0.10 0.00 57 1013.8
20260904212718 32 360 14.5 30.6 0.00 0.10 0.00 57 1013.8
20260904212618 32 360 12.9 30.6 0.00 0.10 0.00 57 1013.8
20260904212519 32 360 14.5 30.6 0.00 0.10 0.00 56 1013.8
20260904212420 32 360 11.3 30.6 0.00 0.10 0.00 56 1013.8
20260904212325 32 360 12.9 30.6 0.00 0.10 0.00 55 1013.8
20260904212226 32 360 11.3 30.6 0.00 0.10 0.00 56 1013.9
20260904212126 32 360 16.1 30.6 0.00 0.10 0.00 56 1013.8
20260904212027 32 360 16.1 30.6 0.00 0.10 0.00 55 1014.0
20260904211928 32 165 12.9 29.0 0.00 0.10 0.00 55 1014.0
20260904211848 32 360 11.3 29.0 0.00 0.10 0.00 54 1014.0
20260904211728 32 360 11.3 29.0 0.00 0.10 0.00 54 1013.9
20260904211632 32 360 14.5 29.0 0.00 0.10 0.00 54 1013.8
20260904211532 32 360 14.5 29.0 0.00 0.10 0.00 55 1014.0
20260904211432 32 360 12.9 29.0 0.00 0.10 0.00 56 1014.0
20260904211332 32 360 14.5 29.0 0.00 0.10 0.00 55 1013.9
20260904211232 32 360 16.1 29.0 0.00 0.10 0.00 56 1013.9
20260904211133 32 360 16.1 32.2 0.00 0.10 0.00 56 1013.9
20260904211017 32 360 16.1 32.2 0.00 0.10 0.00 55 1014.0
20260904210918 32 360 16.1 32.2 0.00 0.10 0.00 56 1014.0
20260904210819 32 360 16.1 32.2 0.00 0.10 0.00 56 1013.8
20260904210719 32 360 16.1 32.2 0.00 0.10 0.00 57 1013.9
20260904210619 32 360 19.3 32.2 0.00 0.10 0.00 56 1013.9
20260904210520 32 360 19.3 32.2 0.00 0.10 0.00 56 1013.9
20260904210425 32 360 19.3 32.2 0.00 0.10 0.00 57 1014.0
20260904210325 32 360 20.9 32.2 0.00 0.10 0.00 57 1013.9
20260904210226 32 360 16.1 32.2 0.00 0.10 0.00 57 1013.9
20260904210148 32 360 12.9 32.2 0.00 0.10 0.00 59 1013.9
20260904210026 32 360 14.5 30.6 0.00 0.10 0.00 58 1013.9
20260904205927 32 360 20.9 30.6 0.00 0.10 0.00 58 1014.0
20260904205829 32 360 22.5 30.6 0.00 0.10 0.00 58 1013.9
20260904205729 32 360 22.5 30.6 0.00 0.10 0.00 58 1014.0
20260904205632 32 360 19.3 30.6 0.00 0.10 0.00 57 1014.0
20260904205533 32 360 14.5 30.6 0.00 0.10 0.00 57 1014.0
20260904205433 32 360 12.9 30.6 0.00 0.10 0.00 57 1014.0
20260904205354 32 360 11.3 30.6 0.00 0.10 0.00 58 1013.9
20260904205235 32 360 12.9 30.6 0.00 0.10 0.00 58 1014.0
20260904205136 32 360 16.1 30.6 0.00 0.10 0.00 57 1014.0
20260904205035 32 360 17.7 30.6 0.00 0.10 0.00 57 1014.0
20260904204919 32 360 14.5 25.7 0.00 0.10 0.00 58 1014.0
20260904204840 32 360 17.7 24.1 0.00 0.10 0.00 57 1014.0
20260904204720 32 360 14.5 24.1 0.00 0.10 0.00 57 1014.0
20260904204621 32 360 16.1 24.1 0.00 0.10 0.00 56 1014.1
20260904204521 32 360 16.1 24.1 0.00 0.10 0.00 55 1014.0
20260904204421 32 360 16.1 24.1 0.00 0.10 0.00 55 1014.1
20260904204322 32 360 16.1 24.1 0.00 0.10 0.00 55 1014.1
20260904204227 32 360 14.5 24.1 0.00 0.10 0.00 56 1014.1
20260904204128 32 360 14.5 24.1 0.00 0.10 0.00 56 1014.3
20260904204049 32 360 14.5 24.1 0.00 0.10 0.00 56 1014.2
20260904203927 32 360 14.5 24.1 0.00 0.10 0.00 56 1014.2
20260904203828 32 360 16.1 24.1 0.00 0.10 0.00 56 1014.2
20260904203730 32 360 14.5 22.5 0.00 0.10 0.00 56 1014.2
20260904203629 32 360 11.3 22.5 0.00 0.10 0.00 55 1014.2
20260904203534 32 360 8.0 22.5 0.00 0.10 0.00 56 1014.2
20260904203434 32 360 9.7 22.5 0.00 0.10 0.00 57 1014.3
20260904203335 32 360 11.3 24.1 0.00 0.10 0.00 56 1014.3
20260904203217 32 360 12.9 25.7 0.00 0.10 0.00 57 1014.2
20260904203118 32 360 11.3 25.7 0.00 0.10 0.00 58 1014.3
20260904203038 32 360 12.9 25.7 0.00 0.10 0.00 57 1014.3
20260904202921 32 360 12.9 25.7 0.00 0.10 0.00 57 1014.2
20260904202843 32 360 12.9 25.7 0.00 0.10 0.00 57 1014.3
20260904202722 32 360 16.1 25.7 0.00 0.10 0.00 56 1014.3
20260904202622 33 360 14.5 25.7 0.00 0.10 0.00 56 1014.3
20260904202522 33 360 14.5 25.7 0.00 0.10 0.00 56 1014.4
20260904202421 33 360 11.3 19.3 0.00 0.10 0.00 56 1014.3
20260904202323 32 360 11.3 19.3 0.00 0.10 0.00 57 1014.4
20260904202243 32 360 9.7 16.1 0.00 0.10 0.00 57 1014.3
20260904202143 32 360 9.7 16.1 0.00 0.10 0.00 57 1014.4
20260904202027 32 360 8.0 16.1 0.00 0.10 0.00 57 1014.3
20260904201926 32 136 8.0 19.3 0.00 0.10 0.00 57 1014.4
20260904201827 32 360 6.4 19.3 0.00 0.10 0.00 61 1014.4
20260904201729 32 360 4.8 19.3 0.00 0.10 0.00 61 1014.4
20260904201629 32 360 3.2 19.3 0.00 0.10 0.00 61 1014.4
20260904201529 32 360 3.2 29.0 0.00 0.10 0.00 61 1014.4
20260904201434 32 360 6.4 29.0 0.00 0.10 0.00 61 1014.5
20260904201316 31 161 9.7 29.0 0.00 0.10 0.00 61 1014.4
20260904201216 31 360 11.3 29.0 0.00 0.10 0.00 60 1014.5
20260904201116 32 360 12.9 29.0 0.00 0.10 0.00 59 1014.5
20260904201018 32 360 14.5 29.0 0.00 0.10 0.00 60 1014.6
20260904200939 32 360 17.7 29.0 0.00 0.10 0.00 59 1014.5
20260904200818 32 360 17.7 29.0 0.00 0.10 0.00 58 1014.5
20260904200723 32 360 19.3 29.0 0.00 0.10 0.00 58 1014.6
20260904200643 32 360 16.1 29.0 0.00 0.10 0.00 58 1014.5
20260904200516 32 360 11.3 24.1 0.00 0.10 0.00 60 1014.6
20260904200416 32 360 11.3 24.1 0.00 0.10 0.00 59 1014.6
20260904200317 32 360 14.5 24.1 0.00 0.10 0.00 58 1014.5
20260904200217 32 360 17.7 24.1 0.00 0.10 0.00 58 1014.6
20260904200121 32 360 19.3 24.1 0.00 0.10 0.00 57 1014.6
20260904200022 32 360 16.1 24.1 0.00 0.10 0.00 57 1014.6
20260904195942 32 360 16.1 24.1 0.00 0.10 0.00 59 1014.6
20260904195824 32 360 14.5 24.1 0.00 0.10 0.00 59 1014.5
20260904195722 32 360 14.5 24.1 0.00 0.10 0.00 58 1014.5
20260904195643 32 360 14.5 24.1 0.00 0.10 0.00 57 1014.6
20260904195522 32 360 14.5 24.1 0.00 0.10 0.00 59 1014.6
20260904195443 32 360 11.3 24.1 0.00 0.10 0.00 60 1014.6
20260904195327 32 360 8.0 22.5 0.00 0.10 0.00 60 1014.6
20260904195248 32 360 8.0 22.5 0.00 0.10 0.00 61 1014.5
20260904195127 32 360 9.7 22.5 0.00 0.10 0.00 61 1014.7
20260904195027 32 360 12.9 22.5 0.00 0.10 0.00 61 1014.6
20260904194928 32 360 12.9 22.5 0.00 0.10 0.00 60 1014.7
20260904194829 32 360 11.3 22.5 0.00 0.10 0.00 60 1014.7
20260904194729 32 360 6.4 24.1 0.00 0.10 0.00 62 1014.6
20260904194634 32 360 4.8 24.1 0.00 0.10 0.00 61 1014.6
20260904194534 32 360 3.2 24.1 0.00 0.10 0.00 61 1014.6
20260904194416 32 360 8.0 24.1 0.00 0.10 0.00 61 1014.7
20260904194316 32 360 12.9 24.1 0.00 0.10 0.00 59 1014.8
20260904194237 32 360 14.5 25.7 0.00 0.10 0.00 59 1014.8
20260904194135 32 360 14.5 25.7 0.00 0.10 0.00 59 1014.8
20260904194016 32 360 11.3 25.7 0.00 0.10 0.00 60 1014.8
20260904193921 32 360 9.7 25.7 0.00 0.10 0.00 62 1014.9
20260904193822 32 360 8.0 25.7 0.00 0.10 0.00 62 1014.9
20260904193723 32 360 8.0 25.7 0.00 0.10 0.00 62 1015.0
20260904193623 32 360 9.7 25.7 0.00 0.10 0.00 62 1014.9
20260904193523 32 360 12.9 25.7 0.00 0.10 0.00 61 1015.0
20260904193423 32 360 12.9 22.5 0.00 0.10 0.00 61 1014.9
20260904193324 32 360 12.9 22.5 0.00 0.10 0.00 61 1014.9
20260904193228 32 360 12.9 22.5 0.00 0.10 0.00 63 1015.0
20260904193129 32 360 12.9 24.1 0.00 0.10 0.00 64 1014.9
20260904193028 32 165 12.9 24.1 0.00 0.10 0.00 64 1014.9
20260904192928 31 360 14.5 24.1 0.00 0.10 0.00 64 1014.9
20260904192829 31 360 12.9 24.1 0.00 0.10 0.00 64 1014.9
20260904192727 31 360 12.9 24.1 0.00 0.10 0.00 64 1014.9
20260904192628 31 360 11.3 25.7 0.00 0.10 0.00 64 1014.9
20260904192531 31 360 9.7 25.7 0.00 0.10 0.00 64 1014.9
20260904192432 32 360 8.0 27.4 0.00 0.10 0.00 64 1015.0
20260904192333 32 360 8.0 27.4 0.00 0.10 0.00 65 1015.0
20260904192233 32 360 6.4 27.4 0.00 0.10 0.00 65 1014.9
20260904192133 31 109 8.0 27.4 0.00 0.10 0.00 65 1015.0
20260904192054 31 360 12.9 27.4 0.00 0.10 0.00 66 1015.1
20260904191932 31 157 14.5 27.4 0.00 0.10 0.00 65 1015.2
20260904191817 31 360 16.1 27.4 0.00 0.10 0.00 66 1015.1
20260904191717 31 360 17.7 27.4 0.00 0.10 0.00 66 1015.2
20260904191617 31 360 14.5 27.4 0.00 0.10 0.00 66 1015.2
20260904191538 31 131 12.9 27.4 0.00 0.10 0.00 67 1015.1
20260904191418 31 360 9.7 22.5 0.00 0.10 0.00 67 1015.1
20260904191318 31 360 8.0 22.5 0.00 0.10 0.00 68 1015.2
20260904191219 31 360 9.7 22.5 0.00 0.10 0.00 68 1015.2
20260904191143 31 360 9.7 22.5 0.00 0.10 0.00 68 1015.2
20260904191016 31 169 12.9 22.5 0.00 0.10 0.00 67 1015.2
20260904190917 31 360 11.3 25.7 0.00 0.10 0.00 68 1015.3
20260904190817 31 360 11.3 25.7 0.00 0.10 0.00 68 1015.3
20260904190717 31 360 9.7 25.7 0.00 0.10 0.00 68 1015.3
20260904190637 31 360 11.3 25.7 0.00 0.10 0.00 68 1015.3
20260904190516 31 360 14.5 25.7 0.00 0.10 0.00 68 1015.2
20260904190441 31 360 16.1 25.7 0.00 0.10 0.00 67 1015.3
20260904190320 31 360 17.7 25.7 0.00 0.10 0.00 67 1015.4
20260904190219 30 360 17.7 25.7 0.00 0.10 0.00 69 1015.4
20260904190120 30 360 17.7 25.7 0.00 0.10 0.00 69 1015.4
20260904190022 30 360 17.7 22.5 0.00 0.10 0.00 69 1015.4
20260904185922 30 360 16.1 22.5 0.00 0.10 0.00 69 1015.4
20260904185844 30 360 11.3 22.5 0.00 0.10 0.00 69 1015.4
20260904185727 30 360 8.0 22.5 0.00 0.10 0.00 70 1015.4
20260904185627 30 360 9.7 27.4 0.00 0.10 0.00 70 1015.5
20260904185547 30 360 12.9 27.4 0.00 0.10 0.00 69 1015.4
20260904185427 30 360 14.5 27.4 0.00 0.10 0.00 69 1015.5
20260904185347 30 360 14.5 27.4 0.00 0.10 0.00 70 1015.4
20260904185228 30 360 12.9 27.4 0.00 0.10 0.00 70 1015.5
20260904185128 30 360 12.9 27.4 0.00 0.10 0.00 70 1015.5
20260904185029 30 360 14.5 27.4 0.00 0.10 0.00 70 1015.5
20260904184933 30 360 16.1 27.4 0.00 0.10 0.00 69 1015.5
20260904184853 30 360 14.5 27.4 0.00 0.10 0.00 70 1015.6
20260904184732 30 360 9.7 27.4 0.00 0.10 0.00 70 1015.5
20260904184653 30 360 6.4 20.9 0.00 0.10 0.00 71 1015.5
20260904184532 30 360 8.0 20.9 0.00 0.10 0.00 70 1015.5
20260904184432 30 360 11.3 20.9 0.00 0.10 0.00 71 1015.6
20260904184333 30 360 9.7 20.9 0.00 0.10 0.00 71 1015.7
20260904184254 30 360 9.7 20.9 0.00 0.10 0.00 71 1015.7
20260904184118 30 360 6.4 20.9 0.00 0.10 0.00 71 1015.7
20260904184018 30 360 8.0 20.9 0.00 0.10 0.00 71 1015.7
20260904183918 30 360 9.7 20.9 0.00 0.10 0.00 71 1015.9
20260904183817 30 360 12.9 20.9 0.00 0.10 0.00 71 1015.8
20260904183718 30 360 11.3 20.9 0.00 0.10 0.00 70 1015.8
20260904183618 30 360 9.7 20.9 0.00 0.10 0.00 72 1015.8
20260904183519 30 360 8.0 20.9 0.00 0.10 0.00 72 1015.8
20260904183423 30 360 8.0 20.9 0.00 0.10 0.00 72 1015.8
20260904183343 30 360 8.0 20.9 0.00 0.10 0.00 71 1015.8
20260904183222 30 360 9.7 19.3 0.00 0.10 0.00 71 1015.9
20260904183123 30 360 9.7 19.3 0.00 0.10 0.00 72 1015.9
20260904183022 30 360 12.9 19.3 0.00 0.10 0.00 72 1015.8
20260904182921 30 162 14.5 22.5 0.00 0.10 0.00 71 1015.9
20260904182822 30 360 14.5 22.5 0.00 0.10 0.00 71 1015.8
20260904182721 30 360 12.9 22.5 0.00 0.10 0.00 72 1015.8
20260904182620 30 360 12.9 22.5 0.00 0.10 0.00 71 1015.8
20260904182524 30 360 14.5 22.5 0.00 0.10 0.00 72 1015.8
20260904182426 30 140 14.5 22.5 0.00 0.10 0.00 72 1015.8
20260904182327 30 360 14.5 22.5 0.00 0.10 0.00 72 1015.8
20260904182227 30 157 11.3 22.5 0.00 0.10 0.00 72 1015.8
20260904182127 30 360 6.4 22.5 0.00 0.10 0.00 72 1015.8
20260904182029 30 360 4.8 19.3 0.00 0.10 0.00 72 1015.8
20260904181934 30 360 4.8 19.3 0.00 0.10 0.00 72 1015.8
20260904181833 30 360 4.8 19.3 0.00 0.10 0.00 73 1015.8
20260904181753 30 360 6.4 19.3 0.00 0.10 0.00 73 1015.9
20260904181632 30 360 6.4 19.3 0.00 0.10 0.00 72 1015.8
20260904181533 30 360 8.0 19.3 0.00 0.10 0.00 73 1015.9
20260904181434 30 360 8.0 19.3 0.00 0.10 0.00 74 1015.9
20260904181354 30 360 6.4 19.3 0.00 0.10 0.00 74 1015.9
20260904181218 29 360 6.4 17.7 0.00 0.10 0.00 73 1015.8
20260904181120 29 360 6.4 17.7 0.00 0.10 0.00 73 1015.9
20260904181041 29 360 8.0 17.7 0.00 0.10 0.00 73 1015.9
20260904180919 29 360 8.0 17.7 0.00 0.10 0.00 73 1015.9
20260904180820 29 360 6.4 17.7 0.00 0.10 0.00 74 1015.9
20260904180721 29 360 8.0 17.7 0.00 0.10 0.00 74 1015.9
20260904180642 29 360 8.0 17.7 0.00 0.10 0.00 74 1015.9
20260904180522 29 360 9.7 17.7 0.00 0.10 0.00 74 1015.9
20260904180426 29 360 9.7 17.7 0.00 0.10 0.00 74 1016.0
20260904180327 29 360 9.7 17.7 0.00 0.10 0.00 74 1015.9
20260904180227 29 360 8.0 17.7 0.00 0.10 0.00 74 1016.0
20260904180148 29 360 8.0 17.7 0.00 0.10 0.00 74 1015.9
20260904180027 28 360 9.7 17.7 0.00 0.10 0.00 75 1015.9
20260904175929 28 360 9.7 17.7 0.00 0.10 0.00 75 1015.9
20260904175831 28 360 11.3 17.7 0.00 0.10 0.00 75 1016.0
20260904175733 28 360 9.7 17.7 0.00 0.10 0.00 75 1016.0
20260904175632 28 360 8.0 17.7 0.00 0.10 0.00 75 1016.0
20260904175534 28 360 6.4 17.7 0.00 0.10 0.00 74 1016.0
20260904175434 28 360 6.4 17.7 0.00 0.10 0.00 74 1016.1
20260904175334 28 360 8.0 17.7 0.00 0.10 0.00 74 1016.1
20260904175234 28 360 11.3 17.7 0.00 0.10 0.00 75 1016.1
20260904175135 28 360 11.3 17.7 0.00 0.10 0.00 75 1016.1
20260904175016 28 360 8.0 16.1 0.00 0.10 0.00 75 1016.1
20260904174916 28 360 6.4 16.1 0.00 0.10 0.00 75 1016.2
20260904174818 28 173 4.8 16.1 0.00 0.10 0.00 75 1016.1
20260904174717 28 360 6.4 16.1 0.00 0.10 0.00 75 1016.1
20260904174618 28 360 8.0 16.1 0.00 0.10 0.00 75 1016.1
20260904174519 28 360 8.0 16.1 0.00 0.10 0.00 75 1016.2
20260904174419 28 360 8.0 19.3 0.00 0.10 0.00 75 1016.2
20260904174344 28 360 8.0 19.3 0.00 0.10 0.00 75 1016.3
20260904174223 28 360 8.0 19.3 0.00 0.10 0.00 75 1016.3
20260904174124 28 360 9.7 19.3 0.00 0.10 0.00 75 1016.3
20260904174025 28 360 9.7 19.3 0.00 0.10 0.00 75 1016.3
20260904173925 28 360 9.7 19.3 0.00 0.10 0.00 75 1016.3
20260904173825 28 360 11.3 19.3 0.00 0.10 0.00 76 1016.2
20260904173746 28 360 11.3 19.3 0.00 0.10 0.00 76 1016.2
20260904173629 28 360 11.3 19.3 0.00 0.10 0.00 76 1016.2
20260904173529 28 360 9.7 14.5 0.00 0.10 0.00 76 1016.2
20260904173428 28 360 8.0 14.5 0.00 0.10 0.00 76 1016.2
20260904173349 28 360 8.0 16.1 0.00 0.10 0.00 76 1016.2
20260904173228 28 360 6.4 16.1 0.00 0.10 0.00 76 1016.2
20260904173129 28 360 8.0 16.1 0.00 0.10 0.00 76 1016.2
20260904173029 28 360 8.0 16.1 0.00 0.10 0.00 76 1016.3
20260904172929 28 360 8.0 17.7 0.00 0.10 0.00 76 1016.4
20260904172835 28 139 8.0 17.7 0.00 0.10 0.00 76 1016.3
20260904172754 28 194 8.0 20.9 0.00 0.10 0.00 76 1016.3
20260904172634 28 360 6.4 20.9 0.00 0.10 0.00 76 1016.4
20260904172555 28 360 6.4 24.1 0.00 0.10 0.00 76 1016.4
20260904172434 28 360 8.0 24.1 0.00 0.10 0.00 77 1016.3
20260904172356 28 360 8.0 24.1 0.00 0.10 0.00 77 1016.4
20260904172234 28 360 9.7 24.1 0.00 0.10 0.00 77 1016.4
20260904172134 28 360 11.3 24.1 0.00 0.10 0.00 77 1016.4
20260904172019 28 360 14.5 24.1 0.00 0.10 0.00 76 1016.4
20260904171939 28 360 16.1 24.1 0.00 0.10 0.00 76 1016.4
20260904171839 28 360 16.1 24.1 0.00 0.10 0.00 77 1016.3
20260904171720 28 360 16.1 24.1 0.00 0.10 0.00 77 1016.4
20260904171621 28 360 12.9 22.5 0.00 0.10 0.00 77 1016.4